GFSSE_850_thetae_000.txt.gz
Theta_e
328 324 324 328 328 332 335 338 340 340 339 340 339 337 334 329 325 328 334 334 331 329 329 328 326 326 324 325 328 327 323 321 320 322 323 322 325 327 326 325 328 327 326
326 324 322 323 326 329 331 334 334 336 337 338 338 336 335 333 328 324 323 324 326 330 324 325 323 324 325 326 329 328 326 325 322 318 317 318 322 323 324 324 326 330 328
328 323 322 322 322 323 325 328 330 334 336 336 335 335 335 336 335 334 331 329 332 327 326 324 323 327 329 329 330 330 328 327 325 321 318 319 321 324 325 323 325 322 328
333 331 323 319 319 319 320 324 327 329 333 330 323 322 325 332 334 333 332 332 330 330 326 325 325 326 328 323 325 330 329 328 327 326 322 327 329 328 326 329 322 322 330
332 330 325 322 321 320 320 319 320 320 322 325 320 326 326 329 331 330 329 329 329 326 325 324 325 327 327 325 324 322 327 330 328 329 325 325 326 329 330 328 322 324 330
327 326 323 321 320 319 320 321 321 320 320 320 319 318 318 321 326 326 326 326 328 330 325 326 327 329 322 324 324 323 324 331 328 330 328 327 328 327 328 327 327 317 327
325 324 322 321 320 320 320 321 322 322 321 320 320 321 321 319 317 315 316 318 324 327 329 331 328 329 327 327 326 324 327 327 329 327 330 327 329 328 330 329 327 321 318
327 329 327 327 325 321 320 320 320 320 320 320 319 320 320 321 321 321 320 320 322 325 326 324 320 319 322 328 323 323 322 322 323 328 331 329 330 330 329 329 326 328 317
331 333 332 333 331 330 321 323 320 319 320 319 319 319 319 317 317 316 317 320 321 320 318 318 317 320 326 324 325 325 323 323 327 328 329 329 330 331 330 330 328 325 325
332 330 328 327 327 326 322 321 324 323 323 321 319 318 318 318 317 316 314 314 315 321 322 322 322 322 324 327 327 327 328 326 323 323 324 327 326 330 330 330 329 327 325
333 334 330 325 320 320 323 322 326 325 324 322 321 319 319 319 314 313 312 312 314 314 315 318 320 323 324 326 327 327 327 325 322 319 319 324 323 328 330 330 329 329 327
332 329 325 319 317 319 320 327 327 326 325 326 322 318 316 313 313 313 310 310 311 311 308 310 312 318 321 321 320 321 322 323 323 321 322 321 320 323 329 329 329 328 327
332 326 322 319 316 314 318 324 327 326 325 324 320 318 317 313 310 311 310 308 311 311 305 310 312 312 317 320 320 320 321 320 321 323 318 322 324 323 326 327 328 328 327
325 321 320 318 317 314 318 324 325 327 326 322 322 317 317 311 310 309 305 306 307 305 306 310 311 308 308 309 309 312 315 318 320 320 319 320 322 324 324 325 327 327 326
320 319 318 317 316 314 314 318 322 325 324 322 319 317 316 311 311 310 309 308 308 307 307 307 307 307 307 308 307 310 313 314 316 318 319 319 319 319 321 323 325 326 326
319 318 317 316 316 314 313 315 319 322 323 322 320 318 313 309 309 309 308 307 307 307 306 306 304 303 303 303 304 305 307 310 314 316 316 318 317 318 318 319 321 325 326
318 317 316 316 315 315 313 313 314 315 316 314 312 309 309 308 307 307 307 306 306 306 306 304 304 304 303 303 302 302 303 306 310 312 315 318 319 318 318 318 317 318 320
317 316 316 316 315 314 313 312 311 312 313 312 311 310 309 308 308 306 305 307 308 306 305 304 304 305 305 305 304 304 304 303 302 303 306 311 316 319 321 321 319 319 320
316 316 316 315 314 313 312 311 310 311 312 311 310 309 308 308 308 306 305 306 306 306 305 306 306 305 303 303 303 303 303 303 303 303 303 303 304 307 314 319 321 320 319
316 315 315 314 313 312 311 311 310 309 309 309 309 309 307 308 309 307 305 305 307 306 305 305 305 303 303 302 302 302 302 302 302 303 303 305 307 308 308 309 312 318 319
315 315 314 312 312 312 311 311 311 310 309 308 308 307 308 309 308 307 307 305 306 306 305 305 305 303 302 302 302 302 302 302 301 301 303 306 305 304 304 306 307 312 317
315 314 314 313 313 313 312 312 311 311 309 309 308 307 306 307 307 307 307 306 305 305 304 304 304 303 303 302 302 302 303 300 300 300 300 300 300 302 303 304 304 305 307
314 314 314 313 313 313 313 312 311 311 310 310 309 308 307 307 307 307 307 306 306 305 304 304 304 303 302 301 303 301 300 302 299 300 300 300 301 299 300 303 305 305 306
314 314 313 313 313 313 313 312 312 312 311 312 311 309 307 307 306 307 307 306 305 305 304 303 303 302 302 301 300 299 296 299 300 300 300 300 300 300 299 300 304 305 305
314 314 313 313 313 313 313 313 313 313 313 312 311 310 308 307 306 305 306 306 306 305 303 302 302 302 302 299 298 298 295 295 294 294 297 296 295 296 297 298 302 305 305
315 314 314 314 314 313 313 312 312 311 311 313 312 312 310 308 306 305 305 306 306 304 304 303 303 301 301 300 299 299 296 293 292 293 295 296 296 296 297 297 296 298 300

GFSSE_850_thetae_003.txt.gz
Theta_e
323 323 329 334 336 336 337 340 339 338 340 339 337 335 334 331 330 337 336 334 333 331 329 328 328 327 325 324 322 323 325 324 319 319 317 316 319 322 328 327 328 329 330
323 322 324 330 333 334 336 339 340 339 337 338 337 334 333 330 324 328 334 331 326 326 326 326 324 325 325 325 324 325 325 322 321 321 317 315 314 319 324 325 326 328 328
324 321 321 323 326 327 330 331 334 332 336 337 336 334 333 331 329 325 324 323 323 327 329 327 325 323 325 324 325 327 329 327 326 325 320 317 315 316 321 324 325 327 328
331 321 318 319 319 322 324 328 329 333 334 330 324 325 329 333 334 333 332 332 332 332 331 328 325 324 326 325 328 329 330 328 327 326 324 321 323 320 322 324 323 324 322
331 324 321 320 319 318 320 321 321 324 326 326 322 326 325 328 330 329 328 327 327 327 324 323 324 325 324 325 326 325 325 326 325 328 326 323 325 327 327 328 328 324 321
325 323 321 321 320 319 318 319 319 319 320 320 320 319 317 316 319 320 319 318 319 323 326 325 324 324 325 324 324 324 323 324 326 329 329 327 326 328 328 328 327 325 319
322 321 320 318 317 317 317 318 318 319 319 318 318 317 318 320 319 317 316 315 313 317 324 327 330 328 327 324 323 324 323 324 328 329 331 330 328 329 329 328 328 327 320
320 320 321 322 321 320 316 317 318 319 319 318 317 317 319 320 318 317 316 318 320 319 320 322 319 316 314 319 326 329 326 325 325 322 327 330 330 329 329 329 329 328 325
325 322 321 321 318 317 316 317 320 319 319 319 318 318 318 317 316 315 315 315 317 318 320 318 317 318 320 324 324 324 324 324 323 323 324 327 329 328 329 329 329 329 327
331 326 324 322 318 315 317 321 324 323 321 320 318 317 317 317 317 314 311 310 312 315 318 320 321 321 323 323 325 326 327 327 324 325 327 327 328 328 327 328 329 330 328
331 330 330 325 319 316 315 320 325 325 323 323 321 319 318 317 315 312 311 310 311 312 313 314 317 319 320 322 324 325 326 327 325 324 321 320 322 324 324 328 329 330 329
330 330 328 321 317 316 316 318 324 325 324 323 324 319 316 315 311 310 310 309 310 311 310 310 313 313 317 319 320 320 320 321 323 323 322 321 322 323 324 327 329 330 329
331 331 325 320 318 316 315 319 321 322 320 322 319 317 315 313 311 308 307 307 307 308 309 306 308 310 311 315 317 320 320 321 321 320 320 322 320 323 322 324 327 329 329
331 329 321 319 317 316 314 314 317 319 323 323 320 315 314 312 310 311 312 310 307 307 307 306 307 308 308 307 308 308 308 312 314 318 320 321 319 321 325 326 325 326 327
329 325 320 317 316 315 315 312 315 321 323 323 322 319 316 316 312 310 310 309 308 308 308 307 306 306 306 306 306 306 306 308 312 314 317 319 319 319 319 321 323 325 327
323 319 317 316 315 315 314 313 314 318 320 321 322 320 318 316 309 308 308 308 308 308 308 307 306 304 304 303 303 303 303 303 304 307 311 314 316 318 318 318 318 319 323
320 318 316 316 315 314 313 313 312 314 316 316 314 312 310 309 308 308 307 306 306 307 307 307 305 304 304 305 305 305 305 305 304 303 303 304 310 315 317 317 320 319 318
318 317 316 315 314 314 312 312 311 311 310 311 312 311 310 309 308 307 307 306 305 305 305 305 304 305 306 306 305 304 304 304 304 303 303 303 304 304 307 317 320 322 322
317 316 315 315 313 312 312 311 311 311 310 309 309 309 309 309 308 308 308 307 304 305 305 305 306 306 306 305 304 304 304 304 303 302 302 303 302 305 307 306 307 313 317
316 315 315 313 312 313 312 312 312 312 311 310 310 309 308 308 307 308 309 307 306 305 305 306 306 305 305 304 303 304 304 304 303 302 301 303 304 305 305 305 307 309 310
315 315 314 313 313 313 313 312 312 312 312 311 310 309 309 308 308 307 307 307 306 306 306 306 305 305 305 303 302 303 303 303 303 301 300 299 300 299 300 303 304 305 305
314 314 313 313 314 313 313 313 313 313 312 312 312 311 309 309 308 308 307 306 306 307 306 306 305 305 304 303 302 301 301 302 302 302 301 299 298 301 302 300 301 302 305
314 314 314 313 313 313 313 312 312 312 312 312 312 312 312 310 309 307 306 306 307 307 306 306 305 305 304 304 302 301 300 299 299 300 299 298 297 297 296 297 297 298 302
314 313 313 313 313 313 312 313 313 313 313 313 312 310 311 312 310 308 307 306 307 307 306 305 304 304 304 303 301 300 299 297 295 296 299 296 296 295 293 293 294 295 302
314 313 313 313 313 313 313 313 313 312 312 311 309 309 310 311 311 308 307 306 307 307 305 304 303 303 302 301 300 298 297 298 299 296 293 296 293 293 292 292 294 297 297
314 314 314 314 313 313 313 313 312 311 310 310 308 308 307 307 308 307 307 306 307 305 304 303 300 298 297 297 298 298 298 297 294 292 292 292 292 292 291 291 293 293 296

GFSSE_850_thetae_006.txt.gz
Theta_e
323 327 334 336 336 335 337 339 339 340 338 337 336 335 334 335 336 336 336 334 333 333 332 330 328 327 325 324 325 322 321 322 323 329 327 317 316 319 323 328 329 329 330
322 323 331 335 334 334 336 339 340 339 339 339 336 334 330 329 334 335 334 333 332 329 327 326 325 324 324 325 324 324 325 323 322 320 318 317 314 316 319 322 326 327 329
321 322 326 331 333 332 335 336 338 336 336 336 335 333 332 329 326 330 333 329 325 325 326 327 329 328 325 324 324 324 327 327 324 323 323 319 316 314 318 321 324 324 326
322 318 321 323 325 325 328 328 329 330 332 330 326 327 331 333 329 327 325 324 324 325 327 331 329 324 324 326 327 330 329 328 327 327 325 322 319 316 318 323 324 323 321
324 320 318 317 318 319 319 320 320 322 323 324 320 322 324 326 332 333 332 330 326 325 325 324 323 324 325 324 324 325 328 329 329 327 326 325 324 322 326 325 323 324 322
322 321 321 319 317 315 315 315 315 315 316 317 317 318 317 318 321 320 316 313 313 318 324 326 326 324 325 324 324 324 324 327 323 328 328 327 326 324 324 326 329 327 325
319 318 316 316 315 314 314 315 315 316 317 317 317 316 316 318 320 319 319 318 318 318 319 321 325 326 327 327 326 323 325 325 326 328 329 329 329 327 329 325 326 328 326
318 317 317 319 317 316 316 317 318 318 318 318 318 318 320 319 318 316 314 314 315 316 318 319 318 316 314 316 318 324 325 327 325 325 324 326 329 329 327 327 326 328 328
322 321 321 320 319 319 318 319 320 321 319 319 318 318 318 317 316 316 314 312 311 311 314 318 319 319 320 320 323 324 325 326 324 325 324 323 324 327 329 327 327 328 328
328 327 325 324 319 316 315 316 319 320 322 320 319 318 317 317 317 315 312 309 309 310 311 312 314 314 314 315 318 321 325 326 326 325 324 324 326 326 328 328 327 329 329
330 328 330 325 318 316 315 314 316 317 320 322 322 319 317 317 316 311 310 309 309 310 310 308 308 309 310 313 318 321 323 324 325 325 324 322 321 323 326 325 326 326 328
329 327 329 324 319 316 314 314 314 314 314 317 317 319 317 315 314 311 309 309 309 309 309 309 307 308 309 310 313 318 320 319 319 320 321 322 322 321 322 324 325 326 329
329 330 330 324 319 316 315 316 314 314 315 317 319 316 315 314 313 311 309 310 310 308 307 308 306 307 310 308 308 310 312 313 312 316 319 319 320 321 320 321 322 326 328
328 331 330 321 317 315 315 314 313 314 318 321 322 320 317 315 313 311 310 310 310 309 308 308 306 306 307 307 308 307 307 306 307 309 312 316 319 319 319 319 324 324 324
330 329 329 319 316 315 314 313 313 315 318 319 320 320 319 318 317 315 310 308 308 308 308 308 308 307 306 305 304 304 304 304 304 305 307 311 314 316 317 319 319 321 323
326 327 323 317 315 315 314 313 313 313 314 315 315 317 318 316 312 309 308 308 307 307 307 308 308 307 305 304 304 304 305 305 306 305 305 304 305 310 314 316 318 319 319
322 326 320 316 315 314 313 312 312 311 311 310 311 313 312 311 310 309 308 307 307 306 306 307 307 306 305 304 305 305 305 305 305 305 304 304 304 304 304 306 312 317 318
322 322 318 316 315 313 312 311 311 311 311 310 310 309 309 309 308 308 307 307 307 307 305 304 305 305 304 305 306 306 305 304 305 305 304 303 303 302 304 305 305 306 313
322 319 316 315 313 312 312 312 312 311 311 311 311 311 310 309 308 308 307 307 307 307 306 305 305 305 306 306 305 305 304 305 305 304 303 302 302 302 304 304 305 307 308
317 316 315 314 312 313 313 313 312 312 312 312 312 312 311 310 309 309 308 307 307 307 306 306 305 305 305 305 305 304 304 304 303 304 303 302 302 300 301 302 302 304 305
315 315 314 313 313 313 313 313 313 313 312 313 312 312 312 311 311 309 308 308 307 307 306 306 306 306 305 305 305 304 304 303 302 303 303 302 302 301 300 299 299 300 302
314 314 313 313 313 313 313 312 312 312 312 312 313 312 312 312 310 310 309 309 308 307 307 306 306 306 306 305 305 304 304 303 303 303 303 303 302 300 299 299 299 297 297
314 314 313 313 313 312 312 312 311 312 313 313 312 311 311 309 309 309 310 309 307 307 307 306 307 307 306 306 305 304 302 302 303 301 301 302 302 301 299 298 297 296 295
314 313 313 313 312 312 312 313 312 312 311 311 310 309 308 308 308 308 308 309 309 307 307 306 307 307 306 305 305 303 302 301 300 300 300 301 301 300 298 296 295 295 294
313 313 312 313 313 313 313 312 311 310 309 309 308 307 307 306 306 307 307 306 307 307 306 307 307 306 306 304 303 300 298 297 297 297 296 299 300 300 297 294 294 293 292
313 313 313 313 312 311 311 311 309 307 306 306 305 304 303 304 304 304 304 304 304 306 305 306 305 304 302 301 296 296 295 294 294 294 295 297 298 300 295 293 292 292 291

GFSSE_850_thetae_009.txt.gz
Theta_e
323 331 336 336 335 337 338 339 338 337 337 336 336 336 335 335 335 336 336 335 334 333 331 330 328 327 325 325 325 325 326 326 328 330 327 320 318 317 322 329 329 329 329
322 330 335 335 334 335 337 339 338 338 338 337 335 334 332 332 333 335 335 333 332 332 330 327 326 328 329 325 324 325 326 326 323 321 319 317 315 316 316 323 326 328 328
321 325 331 332 333 335 337 338 337 334 335 336 335 333 331 329 330 334 334 333 328 325 325 324 327 329 329 325 324 324 326 327 325 323 323 320 317 315 315 317 325 326 326
320 321 321 322 323 324 324 323 327 330 331 329 328 329 331 331 330 328 328 326 325 325 327 329 328 326 323 326 327 327 328 328 328 327 327 324 321 320 319 317 321 325 326
319 318 318 318 318 316 315 317 319 321 324 326 321 324 324 324 329 332 332 331 328 323 322 323 324 323 325 325 325 328 328 329 329 328 328 327 325 325 326 325 320 323 324
319 318 316 315 315 316 317 317 317 319 319 320 321 321 320 322 324 323 320 316 313 314 318 321 326 326 325 325 324 324 324 324 326 327 325 328 327 326 326 327 327 323 325
318 316 316 316 315 315 315 316 316 317 318 318 317 317 317 318 319 319 318 318 319 320 319 320 320 321 322 322 324 325 323 324 325 325 326 328 328 328 328 327 326 327 327
317 317 318 317 316 315 316 317 317 318 318 318 318 317 317 318 318 316 316 314 311 310 311 315 318 318 317 318 320 321 321 324 324 327 326 325 326 328 330 328 327 327 326
322 321 321 319 316 316 316 317 319 320 319 319 318 317 317 316 316 316 315 313 309 309 310 313 316 318 317 319 320 321 323 325 326 325 324 325 324 324 327 328 328 327 327
326 325 324 323 318 316 316 316 315 314 318 319 319 319 317 315 316 316 313 311 309 309 310 309 309 309 310 312 314 318 320 323 325 325 325 325 324 325 324 326 327 328 327
329 328 328 324 318 316 315 314 312 311 313 314 316 318 317 315 315 315 311 309 309 309 309 309 309 307 308 309 311 314 318 321 321 322 324 324 324 322 322 325 327 327 327
327 327 328 326 319 316 314 314 312 311 313 314 316 315 317 316 314 314 312 309 309 309 309 308 308 308 306 309 309 309 313 317 319 319 320 320 321 322 321 321 321 324 325
328 329 329 328 319 315 314 314 313 312 313 315 316 317 317 315 313 313 311 310 310 310 310 308 308 308 306 308 309 308 307 307 307 306 309 313 317 319 320 321 320 321 323
328 329 330 329 318 315 314 313 314 315 316 318 317 317 318 318 317 316 315 314 310 308 309 309 308 308 308 307 306 305 304 304 305 305 307 310 312 315 318 320 319 320 323
328 329 330 328 318 315 314 313 313 314 315 314 314 314 315 316 315 314 311 309 308 308 307 307 307 308 307 306 305 304 304 304 304 304 304 304 305 307 311 316 319 320 319
327 328 329 326 317 315 313 312 312 312 311 311 310 310 311 312 311 311 310 309 308 307 307 307 306 307 306 306 305 304 305 305 305 305 305 305 304 304 304 306 312 316 318
327 327 327 324 316 314 312 312 311 311 311 311 311 311 310 309 309 309 308 308 307 307 307 307 306 305 305 305 304 305 305 305 305 304 305 305 305 304 304 304 305 305 313
323 324 327 321 315 313 312 312 312 311 311 311 311 311 311 311 310 310 309 309 308 307 307 307 306 305 305 305 305 305 306 305 304 305 305 304 303 303 303 303 304 305 305
320 322 325 318 314 312 312 313 312 312 312 312 312 312 311 311 311 311 310 310 309 308 307 307 307 306 306 305 305 305 305 305 304 304 304 304 304 303 302 301 302 303 305
319 324 321 316 313 313 313 313 313 313 313 312 312 312 312 311 311 311 311 310 309 308 308 308 307 306 306 305 305 305 305 304 304 304 303 303 304 303 302 301 301 300 301
315 317 316 314 313 313 313 312 312 312 312 312 312 312 312 312 312 311 310 310 310 308 308 307 308 307 306 306 306 305 305 305 304 304 302 302 302 303 303 303 301 300 299
314 314 313 313 312 311 311 311 311 311 311 312 313 313 311 311 310 309 309 309 309 309 310 308 308 308 307 306 306 306 306 306 304 304 303 302 301 302 302 303 302 300 300
313 313 312 312 311 311 311 311 312 312 312 312 312 310 309 308 307 307 307 307 307 307 308 310 308 307 309 307 307 306 306 306 305 303 302 301 300 301 301 301 301 300 298
312 312 312 312 312 312 312 311 311 310 309 309 307 306 305 304 304 304 303 304 305 305 305 306 307 307 308 308 306 306 305 305 304 304 302 300 299 299 300 300 300 300 297
311 312 312 312 311 311 311 310 309 308 307 305 304 303 302 301 301 300 301 301 302 302 303 303 305 306 305 307 306 305 304 303 301 299 300 300 297 297 298 299 299 298 297
313 312 312 311 311 311 310 309 307 305 304 303 302 301 300 300 300 300 300 301 301 302 302 303 304 303 302 302 303 301 302 299 298 296 296 296 297 297 297 297 296 296 296

GFSSE_850_thetae_012.txt.gz
Theta_e
333 338 336 337 337 338 338 338 338 337 336 336 336 336 336 336 335 336 336 334 333 332 331 330 328 327 326 326 325 325 326 327 327 329 327 321 318 319 326 329 330 338 331
333 337 335 335 335 336 337 338 338 338 337 336 335 335 335 335 334 336 335 334 333 332 332 329 327 326 328 328 327 324 324 326 325 324 320 321 320 315 320 323 328 335 331
333 335 332 331 333 334 336 338 337 335 336 336 333 332 332 331 333 334 334 333 332 327 325 325 325 327 327 327 326 325 325 326 326 324 323 330 331 323 317 322 326 326 328
324 329 329 328 330 330 333 335 334 334 335 334 333 332 331 330 330 332 332 330 326 325 327 329 327 324 324 324 325 326 326 327 327 328 331 332 331 325 319 319 323 325 326
321 324 322 321 320 320 320 322 324 327 327 327 323 326 327 329 330 330 331 332 330 327 322 320 322 324 323 325 325 325 328 330 330 329 333 332 331 331 324 324 321 324 325
324 321 317 316 316 316 316 316 317 318 319 319 320 321 321 320 320 320 319 316 315 315 316 317 319 323 328 327 325 324 324 324 324 330 332 331 330 330 326 326 326 326 324
323 317 315 315 315 315 315 316 316 317 318 318 318 318 317 318 319 319 317 316 314 314 314 315 318 319 319 318 317 319 321 324 325 329 329 331 331 329 328 327 327 325 327
318 316 316 316 316 316 316 316 317 318 318 318 318 318 317 317 317 317 316 315 311 308 310 312 315 318 319 319 320 321 321 322 327 331 331 330 328 326 328 329 329 327 326
321 323 321 317 317 316 316 316 318 319 319 319 319 318 317 316 316 317 316 314 311 309 310 311 310 310 311 311 312 313 316 319 325 329 328 328 328 324 324 326 329 328 326
327 327 324 320 317 316 316 315 315 312 317 318 319 319 317 316 316 316 316 311 310 309 309 310 310 310 308 309 310 312 316 320 324 326 327 327 324 324 324 324 324 327 328
330 327 326 326 318 316 315 315 312 311 313 314 314 315 316 322 316 315 314 311 310 309 309 310 308 308 309 307 308 309 311 320 321 322 323 323 324 324 322 322 325 325 323
332 330 328 326 319 315 315 315 315 313 324 320 321 316 317 314 314 314 313 312 310 310 310 309 309 308 309 315 316 312 316 310 316 318 319 319 320 320 322 322 322 324 324
330 332 332 329 320 316 321 323 326 325 324 323 315 316 320 316 321 321 323 321 319 316 315 314 310 315 311 309 315 311 312 308 314 316 316 307 311 314 318 320 321 321 322
329 332 335 331 322 316 322 325 325 325 325 325 326 315 319 324 324 322 322 321 319 319 317 317 317 310 307 308 307 306 305 306 311 313 312 305 306 308 314 317 320 320 320
331 334 336 335 326 316 314 318 315 314 324 322 324 322 312 322 323 321 318 317 317 317 317 317 317 316 312 308 307 307 307 306 306 309 309 306 306 306 306 307 313 318 320
332 334 336 331 326 316 314 312 312 312 317 317 321 319 311 311 316 317 317 316 316 316 316 316 315 312 312 310 308 306 305 307 308 308 308 307 305 306 306 306 306 308 314
330 332 334 329 326 316 313 312 312 313 311 315 317 311 311 311 313 311 316 316 316 315 314 315 315 313 311 311 308 308 306 307 308 306 306 307 307 306 305 306 306 306 306
326 328 331 327 326 316 312 312 313 315 311 312 312 312 312 311 311 311 315 316 315 313 315 315 315 314 313 311 310 309 309 308 308 307 307 306 307 307 306 305 304 304 305
321 320 328 328 322 315 312 313 312 312 313 316 312 312 312 312 312 312 312 313 313 313 312 314 314 314 313 311 310 309 309 308 308 307 307 307 306 306 307 305 303 303 303
317 321 327 326 319 314 312 312 312 312 312 312 312 312 312 312 312 311 311 311 312 315 314 314 314 313 312 311 310 309 309 309 309 308 307 307 306 307 306 306 305 305 302
316 323 322 320 316 313 312 312 313 313 313 313 313 312 312 311 310 310 309 310 309 312 313 311 313 314 314 312 311 310 309 310 310 308 307 307 306 306 306 306 304 303 303
315 315 316 315 313 312 311 311 311 311 312 312 312 312 311 310 308 306 306 306 308 309 310 311 312 313 314 313 312 311 310 310 310 309 308 307 306 306 305 304 302 302 302
314 314 313 312 311 311 311 312 312 312 311 311 310 309 308 306 304 302 302 302 301 304 307 308 310 311 311 312 312 311 311 310 309 309 308 307 306 305 304 303 301 301 301
312 312 312 312 312 311 311 310 310 310 310 309 308 307 305 304 302 301 300 299 300 301 304 306 307 308 309 310 311 312 311 310 310 309 308 307 306 305 303 302 301 301 301
312 312 311 312 311 311 310 310 309 309 308 308 307 306 304 303 302 302 301 298 299 300 302 301 302 305 307 308 308 309 310 309 309 307 308 307 305 303 301 301 301 300 301
313 312 312 312 311 311 310 308 307 306 306 306 305 303 303 302 302 302 301 298 300 301 302 302 302 302 303 303 303 303 303 302 303 303 305 306 306 303 301 301 300 299 300

GFSSE_850_thetae_015.txt.gz
Theta_e
339 338 337 337 337 337 337 338 337 337 336 336 335 335 335 336 335 335 335 334 333 333 332 331 329 328 327 327 326 327 325 325 326 326 326 327 320 316 319 326 330 337 332
339 340 336 336 336 337 338 338 338 338 336 336 336 337 337 336 336 335 335 334 333 333 332 331 328 327 326 326 326 328 329 326 325 326 324 320 330 327 315 321 327 338 330
340 339 335 333 333 335 338 339 339 337 336 335 334 333 333 333 332 332 333 332 332 330 326 325 325 326 327 326 326 326 326 325 325 326 326 326 334 332 324 316 323 323 327
338 339 334 332 333 335 335 334 333 334 334 334 333 332 331 330 330 330 330 329 328 329 330 327 322 319 321 323 324 324 326 326 326 326 327 332 333 332 324 318 318 321 324
333 336 325 321 320 321 322 323 327 328 327 326 325 325 326 325 323 325 327 328 324 318 315 315 315 318 322 325 324 326 325 329 329 329 330 333 333 333 331 323 322 323 323
328 325 316 316 316 316 317 318 318 319 320 320 320 319 318 318 318 319 319 318 317 317 316 316 318 319 320 320 325 327 325 325 324 326 330 330 331 332 330 325 325 326 326
325 324 315 315 315 315 316 316 317 317 318 318 318 318 318 318 318 318 316 316 314 310 309 310 313 316 318 318 318 318 317 318 319 328 330 331 331 331 330 328 326 326 327
326 326 315 316 316 315 315 316 317 318 319 319 319 318 318 318 317 317 317 316 313 309 309 309 310 309 310 311 311 314 317 319 323 328 329 329 329 330 327 327 328 328 327
326 327 327 322 316 316 315 314 315 316 317 319 319 318 318 317 316 316 316 314 311 309 309 309 309 309 309 308 308 310 311 314 316 326 326 327 327 327 326 324 325 328 329
327 329 330 329 328 329 327 313 312 310 315 318 318 318 317 317 321 318 317 315 311 309 309 310 310 309 308 309 308 308 309 313 323 323 325 324 326 325 324 324 324 324 327
329 332 331 330 329 327 326 319 315 313 313 317 319 319 321 327 326 325 323 315 313 310 311 310 310 310 309 311 314 313 310 320 321 320 322 323 322 321 324 324 323 323 324
330 331 330 332 329 327 324 326 328 326 328 328 329 329 328 328 327 322 324 321 320 319 315 319 317 314 317 318 317 317 318 318 316 317 318 317 313 312 320 321 322 322 323
330 329 330 336 332 328 327 324 326 326 327 327 329 329 327 327 327 326 325 324 323 322 321 321 320 320 320 319 317 317 316 315 315 315 316 315 309 307 310 314 318 320 321
328 328 330 334 329 317 326 325 325 325 326 326 327 327 326 325 325 324 323 321 320 319 319 319 319 319 320 318 315 314 313 310 311 312 313 312 306 305 306 309 314 316 320
328 329 330 332 337 330 325 325 326 325 326 325 326 325 324 323 323 322 321 320 318 318 318 318 318 318 318 316 315 313 313 312 312 311 312 310 307 306 307 307 306 309 315
328 329 330 332 335 331 324 325 325 326 325 324 322 320 312 318 322 321 320 319 318 317 317 317 317 317 317 315 314 313 312 312 311 311 311 310 308 306 306 306 307 307 307
328 328 331 333 335 330 325 324 322 321 318 320 320 320 318 316 319 319 319 319 318 318 317 317 317 317 317 316 315 313 312 312 312 311 311 309 310 308 306 306 306 307 307
326 326 328 333 334 329 323 322 321 320 320 320 320 320 320 319 316 314 318 318 317 317 318 317 317 316 316 316 315 314 312 312 311 311 311 310 309 310 309 307 305 305 305
324 323 326 332 331 327 323 321 321 321 319 319 319 317 317 317 316 314 313 315 316 317 317 317 316 315 316 316 315 314 313 312 312 311 310 310 310 309 309 309 308 304 304
322 325 327 331 328 325 321 320 318 317 317 317 316 316 316 315 315 314 315 314 314 315 314 315 315 316 315 315 315 314 313 312 311 311 311 310 309 309 308 309 307 305 305
324 326 327 326 324 319 317 316 316 316 316 315 316 315 315 314 312 311 311 311 311 311 311 311 312 313 313 314 315 315 314 313 312 311 311 311 310 309 308 309 308 308 306
320 319 318 317 316 315 315 315 315 314 315 315 315 314 312 311 310 309 309 309 308 308 307 306 307 310 311 312 313 314 315 313 313 313 311 311 310 309 308 308 308 307 306
318 317 316 316 316 314 312 314 314 314 314 314 313 313 312 311 309 308 307 307 307 307 307 307 307 308 309 309 310 311 312 313 313 312 313 312 311 310 309 308 308 306 305
318 317 316 315 315 314 312 313 313 313 313 313 312 311 310 308 307 306 305 305 305 306 305 306 307 307 308 308 308 308 310 312 312 312 311 312 311 310 309 308 307 305 304
317 317 316 315 315 314 314 312 312 312 312 311 310 309 307 306 305 304 304 304 305 304 305 306 306 306 306 307 307 308 308 309 309 308 310 311 311 309 309 307 307 304 304
317 317 316 315 314 314 313 312 311 310 310 309 308 307 306 305 304 303 303 303 303 305 305 305 304 303 301 301 302 302 303 302 303 302 303 306 307 308 307 305 304 303 303

GFSSE_850_thetae_018.txt.gz
Theta_e
341 339 336 337 338 338 338 337 337 336 336 335 335 335 335 336 335 335 335 334 333 333 333 332 331 330 328 327 326 326 327 328 329 325 325 323 323 320 316 318 327 332 329
341 337 336 336 337 338 338 337 338 337 336 336 335 336 336 335 335 335 334 333 332 332 331 328 328 327 326 326 326 324 325 326 328 325 325 324 324 333 330 315 317 329 326
339 335 335 334 334 336 338 338 336 335 335 335 334 333 332 332 331 331 331 331 330 328 328 329 327 324 318 315 316 320 323 324 325 325 325 326 331 332 331 317 317 319 322
342 338 332 332 334 334 332 331 332 332 332 331 330 327 327 327 327 327 327 327 328 325 317 315 315 315 316 317 321 322 324 324 326 325 324 329 332 333 331 323 317 320 323
339 330 326 322 320 319 318 319 322 324 324 323 322 322 320 319 319 319 319 318 317 317 316 315 313 314 316 317 318 323 326 325 325 325 327 331 332 330 326 330 323 322 322
325 316 315 314 315 315 315 316 317 318 318 319 318 318 318 318 318 318 318 316 315 312 309 309 310 312 315 317 318 317 317 321 326 326 329 329 330 330 330 330 326 325 326
316 314 315 315 315 315 315 315 315 317 318 318 318 318 318 317 317 316 316 316 314 309 308 309 309 309 308 308 308 310 316 318 316 319 329 330 329 329 329 330 328 326 326
322 315 316 316 315 315 315 315 315 317 317 318 318 318 317 317 315 314 315 315 312 310 309 309 309 309 309 308 307 308 309 309 312 329 329 327 327 328 328 328 326 327 327
326 320 318 317 317 319 315 311 312 311 315 317 318 319 316 317 319 316 315 315 312 310 309 310 310 310 309 309 308 308 308 308 312 326 326 323 325 325 326 326 325 325 327
328 329 330 329 327 329 327 314 310 310 312 313 316 316 326 328 327 326 323 319 314 313 311 311 312 310 310 309 312 314 312 313 322 319 322 324 324 324 323 322 325 324 324
329 331 330 328 328 327 325 325 323 318 329 328 330 325 330 328 327 325 323 324 323 321 318 318 319 317 317 318 318 317 316 319 320 316 319 321 322 322 318 319 322 324 324
330 331 330 330 327 324 324 327 328 327 328 327 328 326 329 326 327 325 326 325 323 321 320 322 320 320 320 320 319 317 318 318 317 312 316 317 317 315 307 308 319 321 322
329 330 332 329 328 330 325 325 327 327 327 328 330 329 327 325 326 325 324 323 321 320 320 319 320 320 320 319 317 316 316 314 312 314 315 316 315 313 306 307 309 313 319
329 329 332 332 322 318 327 326 326 327 327 327 327 326 319 322 322 319 321 318 319 318 318 318 318 318 318 319 318 315 313 312 310 311 312 313 312 311 306 306 307 308 312
328 329 330 331 328 331 320 325 324 323 327 325 326 324 313 314 315 316 318 319 318 318 317 317 317 317 317 317 316 315 314 313 312 311 310 311 312 310 307 307 307 307 307
328 329 329 333 331 328 324 325 322 325 325 323 322 322 314 314 314 314 314 314 316 318 318 316 316 317 317 317 317 316 314 313 312 311 311 312 312 310 308 307 307 307 307
329 329 330 329 336 332 326 324 323 323 319 320 320 320 319 317 314 314 314 314 316 316 315 314 316 317 316 316 317 316 315 314 312 312 311 311 311 310 309 308 306 307 307
327 328 328 333 334 333 325 323 322 321 320 319 320 320 320 319 318 315 314 314 315 315 313 313 313 315 317 316 316 316 316 315 313 312 311 311 311 310 309 309 308 306 306
325 324 324 331 333 332 326 323 322 321 318 321 320 318 317 317 316 316 314 313 313 313 311 311 314 315 316 316 316 316 315 316 315 313 312 312 311 310 310 310 309 309 306
322 323 326 332 332 328 324 322 319 318 317 317 317 316 316 316 315 315 313 311 312 312 311 311 312 312 311 310 312 312 313 313 312 314 313 312 311 310 310 309 309 309 308
326 328 330 329 327 322 319 317 317 316 316 316 316 316 316 314 313 312 311 310 309 309 309 309 309 307 306 308 311 313 313 313 316 315 313 313 312 311 310 310 309 309 308
322 322 321 319 317 316 316 316 315 315 315 315 314 315 314 313 312 311 310 308 307 306 306 305 307 309 310 310 311 312 313 312 313 313 313 314 313 312 311 310 309 309 309
318 318 317 317 316 315 313 315 315 313 314 314 314 314 313 312 311 308 307 306 305 305 305 305 302 303 307 309 309 310 311 311 311 311 312 313 313 313 312 311 310 308 308
318 317 316 316 316 315 314 313 314 313 314 313 312 311 311 310 307 306 306 304 304 304 303 302 306 306 306 307 307 307 308 309 308 309 309 310 310 311 312 312 311 309 308
318 318 317 316 316 315 314 314 313 312 311 311 310 309 308 306 306 305 302 302 302 301 303 305 306 306 306 306 305 303 302 302 303 304 305 306 307 309 310 310 310 309 307
318 317 317 316 316 315 314 313 312 311 310 309 308 307 306 305 301 300 300 300 302 304 304 304 303 302 301 300 300 299 298 298 298 299 299 301 301 303 306 307 308 308 307

GFSSE_850_thetae_024.txt.gz
Theta_e
336 336 334 334 334 334 334 334 334 334 334 334 334 334 333 332 331 330 330 330 329 328 328 327 327 326 326 324 323 320 318 318 322 325 325 324 322 328 324 321 326 331 329
336 335 335 335 335 334 335 335 333 333 333 333 332 330 328 326 324 323 323 322 322 321 318 316 315 315 314 314 314 314 315 316 322 325 325 324 325 327 330 327 325 331 325
336 335 336 336 335 335 335 331 330 329 328 326 323 320 319 317 317 316 316 315 315 315 314 313 312 310 310 311 312 314 316 319 322 325 325 327 328 329 331 329 323 316 320
336 335 336 335 335 332 325 322 320 319 318 317 317 316 315 315 315 315 314 313 313 313 309 308 308 308 309 311 313 315 316 319 324 324 325 327 330 330 329 324 324 324 320
334 334 333 333 323 317 315 315 316 316 316 316 316 315 315 315 314 312 311 313 313 310 307 307 307 307 307 307 307 307 311 316 318 323 324 328 328 327 327 326 325 326 323
331 331 322 315 314 315 315 315 315 315 316 315 315 315 315 314 312 311 312 313 312 310 308 308 309 309 309 308 308 307 308 309 317 321 328 328 328 327 328 326 328 327 325
319 314 315 315 315 314 314 314 314 313 314 314 315 316 314 312 311 311 312 313 311 311 310 309 309 309 309 309 309 308 307 308 313 327 328 328 329 326 326 326 325 327 327
314 315 315 315 314 313 311 310 310 311 313 314 314 312 312 315 317 316 315 315 315 314 313 313 313 314 313 311 310 312 311 308 315 325 325 323 324 323 322 323 323 324 325
315 316 317 318 317 311 308 307 309 310 311 311 313 317 319 317 317 319 319 319 318 316 316 317 315 314 315 314 315 315 315 316 321 321 322 321 322 323 323 323 322 319 320
321 325 324 321 319 316 311 309 310 313 315 317 319 323 322 321 320 319 319 319 318 318 316 315 313 313 314 315 315 314 314 318 320 319 319 317 317 319 320 320 318 312 317
329 328 328 321 322 325 326 325 324 323 323 320 320 323 320 318 320 318 317 317 316 316 316 314 313 314 313 314 314 313 313 313 316 317 316 316 315 316 316 316 315 313 309
329 329 329 319 323 324 326 327 327 326 325 325 325 321 316 320 321 321 318 314 313 313 314 314 314 314 313 313 313 313 314 313 312 311 312 313 314 314 315 315 315 312 307
330 329 330 322 323 324 325 327 327 327 326 326 326 325 317 317 317 314 313 312 313 314 314 314 314 315 314 314 314 314 314 314 313 312 311 309 312 312 313 312 311 311 306
330 330 330 320 318 324 326 326 326 326 326 327 327 323 315 315 316 314 313 313 314 314 314 315 315 315 315 312 313 315 315 316 316 314 313 312 310 310 311 311 310 310 308
330 330 330 319 326 323 324 325 326 326 325 325 326 321 317 314 314 314 315 315 315 316 316 317 317 317 315 312 314 315 315 315 316 316 316 315 314 313 311 309 309 310 309
330 331 330 326 318 324 321 322 320 324 327 326 323 320 319 318 317 316 316 315 315 314 314 314 315 314 312 311 311 312 315 316 316 316 316 316 315 315 314 312 310 309 308
329 330 330 329 324 323 327 324 320 322 324 322 321 320 320 320 319 318 317 317 315 313 312 312 311 311 311 310 310 312 314 315 314 315 316 316 316 315 315 313 312 311 310
328 330 331 330 328 326 325 326 323 321 321 320 320 320 320 320 319 319 317 316 314 313 313 312 311 310 309 308 308 309 309 310 311 308 307 311 313 313 314 313 312 311 311
328 330 330 331 328 327 326 324 321 321 321 320 320 317 319 319 318 317 316 314 313 313 312 311 309 307 305 304 303 303 302 302 302 304 304 304 305 309 312 313 313 312 311
329 331 331 328 326 325 324 322 322 321 319 317 316 315 315 315 314 313 312 311 311 311 310 307 306 305 302 302 302 302 301 301 301 302 304 307 311 311 313 313 314 313 312
330 330 328 327 324 323 321 320 318 316 315 314 315 314 313 313 313 312 312 311 309 308 306 305 305 302 301 300 300 301 302 302 305 305 305 309 309 308 311 312 313 313 311
320 318 318 318 318 316 316 315 315 315 314 314 314 314 313 312 312 311 309 309 307 306 305 304 300 298 299 302 305 304 305 303 304 304 305 305 305 306 306 307 309 311 312
318 316 315 315 315 315 314 314 314 314 313 313 313 313 311 310 310 309 307 306 304 301 298 298 300 302 303 302 302 301 301 301 299 299 299 300 302 303 303 305 306 309 311
315 315 315 315 315 315 315 315 314 313 313 312 312 311 310 309 308 306 303 297 296 295 298 300 302 300 300 300 298 298 298 298 298 298 298 297 297 297 297 298 300 302 305
317 317 316 315 315 314 315 314 313 313 312 312 311 310 309 308 305 299 297 296 296 295 295 297 297 295 298 298 298 297 296 296 296 295 295 295 295 295 295 295 296 297 299
317 316 316 316 315 315 315 314 313 312 311 311 310 308 307 305 299 297 298 298 297 294 296 296 296 297 297 296 295 295 294 295 295 294 294 294 294 293 293 293 293 295 296

GFSSE_850_thetae_027.txt.gz
Theta_e
338 337 337 336 335 334 333 333 332 332 333 333 333 331 330 328 327 326 325 324 324 322 320 320 318 318 318 316 315 315 315 316 317 322 325 325 324 324 327 318 318 325 329
336 335 335 334 333 333 333 333 332 332 332 330 327 324 320 318 316 315 315 315 314 314 314 313 312 311 311 311 312 314 317 319 322 324 324 324 324 324 327 330 319 322 326
335 336 336 335 334 334 333 330 329 328 325 321 317 316 315 314 314 314 313 312 312 312 309 308 308 308 309 311 312 314 315 318 323 325 324 324 325 327 330 330 325 319 322
335 336 336 335 334 334 328 324 321 318 316 316 315 315 314 314 314 311 310 312 312 308 307 307 307 307 307 307 307 308 315 316 321 324 326 325 327 329 327 326 325 323 321
336 336 336 335 332 322 317 316 317 316 315 315 314 314 314 313 310 309 311 312 311 309 308 308 309 309 308 308 307 307 308 314 316 323 324 326 327 327 326 326 326 326 325
336 335 334 326 316 315 315 315 315 314 314 314 313 314 314 311 309 310 311 311 310 310 310 309 309 309 309 309 308 307 308 309 316 319 325 326 327 325 326 327 327 327 327
333 329 318 315 314 314 314 313 312 312 312 313 314 313 311 311 312 312 313 313 313 313 312 312 313 313 313 310 310 311 309 308 313 325 326 327 326 324 323 324 323 324 327
318 315 315 315 314 312 311 310 310 311 312 312 311 312 316 316 316 316 316 315 313 313 314 314 312 313 314 314 316 316 315 313 317 324 324 324 324 321 321 320 319 320 320
315 315 315 314 311 309 308 308 309 309 310 311 314 317 317 317 316 314 314 313 312 312 312 311 311 311 311 312 312 313 313 316 320 320 320 319 321 322 323 323 321 319 315
316 318 319 316 313 308 308 309 310 312 314 316 319 319 319 319 317 316 313 313 313 313 312 312 312 312 312 311 310 311 311 312 313 317 318 317 316 316 318 318 317 316 315
325 324 318 319 321 319 321 319 319 320 318 317 319 320 318 317 316 314 313 313 313 313 313 314 314 314 313 313 312 312 311 311 312 311 311 311 313 314 314 316 316 315 313
327 327 324 316 321 326 326 326 325 322 322 322 322 317 316 316 317 315 313 313 314 315 316 316 316 316 316 315 313 314 313 312 311 312 312 311 309 311 312 313 314 313 311
328 328 326 321 323 325 325 325 324 324 321 321 321 320 314 316 316 314 314 314 315 316 316 316 316 316 316 316 313 313 316 316 315 314 313 313 313 312 310 310 310 311 311
329 329 327 321 324 323 324 325 323 323 325 324 322 322 317 314 315 314 315 315 316 316 316 316 315 314 315 314 312 311 313 315 315 316 316 316 316 315 314 312 311 309 309
329 329 329 324 323 323 324 324 325 324 325 325 325 325 320 315 315 315 315 316 314 314 314 313 313 312 312 312 311 311 310 312 314 316 316 316 316 316 315 315 314 312 310
330 330 329 323 323 324 323 323 324 325 325 325 325 324 321 320 319 319 318 317 316 315 314 313 312 312 312 311 310 309 309 309 312 315 315 315 315 315 315 314 314 314 312
329 330 330 323 323 323 323 324 323 322 325 324 323 322 321 320 320 319 319 318 316 315 314 313 312 312 312 310 307 306 305 305 306 306 308 309 308 311 313 314 315 313 312
328 330 329 322 325 325 327 326 323 324 324 322 322 321 320 320 320 319 317 316 314 313 313 312 312 312 311 308 306 304 304 303 302 301 301 303 306 305 306 307 311 314 313
327 330 329 322 328 326 325 325 323 323 320 319 319 319 319 319 319 318 316 313 312 312 312 311 310 308 306 305 304 302 302 303 302 301 302 303 303 305 308 309 309 311 313
326 330 329 329 327 326 325 324 321 321 320 318 317 317 317 316 315 313 312 312 311 310 310 309 307 306 305 303 299 298 299 299 299 303 305 305 306 308 308 308 309 311 312
328 329 329 327 327 324 323 322 321 320 316 315 314 314 314 313 312 311 310 309 309 308 307 305 303 301 298 298 298 299 298 302 301 300 303 304 303 304 304 303 305 307 308
329 326 324 323 323 320 318 317 315 314 314 313 313 313 312 311 311 311 310 309 306 304 300 296 295 295 297 299 300 299 299 298 299 298 296 297 297 297 297 299 301 302 305
319 317 316 316 315 315 314 314 314 314 314 313 311 311 311 311 310 310 307 301 297 296 295 293 294 296 297 296 298 298 298 298 296 297 296 296 296 296 296 296 296 297 298
315 315 315 315 314 314 313 313 312 312 312 312 312 311 311 310 309 306 301 296 296 295 294 293 294 295 296 295 296 296 296 295 296 295 295 294 295 295 295 294 295 295 296
316 316 316 315 315 315 315 314 314 313 312 311 311 310 308 306 303 298 296 296 295 293 292 292 293 294 294 295 294 294 294 294 294 294 294 294 293 294 294 293 293 293 294
316 316 316 315 315 315 314 314 313 312 311 310 308 306 301 300 298 297 296 295 295 293 292 292 293 293 293 292 292 292 292 294 293 293 294 294 293 293 293 293 292 292 292

GFSSE_850_thetae_030.txt.gz
Theta_e
338 337 337 336 334 334 333 332 332 332 332 332 331 330 329 327 324 322 320 317 315 314 313 313 313 313 313 313 313 313 314 314 315 317 319 321 324 323 327 326 318 329 329
337 337 337 336 334 333 332 332 332 332 331 329 326 321 317 315 314 313 313 312 311 311 310 308 308 308 309 310 311 312 313 314 317 320 319 322 324 324 326 330 323 322 327
337 336 336 335 334 333 332 331 329 327 323 318 316 314 313 313 313 311 310 311 310 307 307 306 306 306 307 307 307 310 314 315 317 321 322 323 325 329 330 328 327 324 320
335 335 335 335 334 333 329 326 321 317 315 314 314 313 313 313 309 310 311 310 308 308 308 308 308 308 307 307 307 307 309 314 317 321 323 324 326 328 326 327 326 324 323
336 336 336 335 334 328 320 315 315 315 314 314 313 313 313 309 309 310 311 310 309 309 309 309 309 309 309 308 308 307 308 309 314 319 323 326 326 326 326 326 326 322 326
336 336 336 335 325 316 314 315 315 314 313 312 313 313 309 309 310 311 311 311 311 311 311 312 313 313 311 309 310 310 308 308 311 317 323 325 327 326 325 325 326 325 326
336 336 333 320 315 314 314 314 312 310 311 312 312 310 312 313 314 315 315 313 313 315 313 311 312 313 314 315 315 314 314 311 313 321 324 326 326 323 321 321 322 319 321
335 327 316 315 314 313 312 310 309 310 311 310 312 315 315 315 314 313 312 311 312 311 310 311 310 310 310 311 312 312 312 314 317 319 322 322 322 321 320 321 322 320 318
319 314 315 314 311 310 308 308 309 310 310 313 317 316 316 315 314 312 312 312 311 311 311 311 311 312 312 312 312 311 311 311 311 315 317 317 318 319 319 321 321 319 316
315 315 314 312 309 307 308 309 310 311 314 318 318 317 316 315 314 313 312 312 312 312 313 313 313 313 313 312 312 312 312 312 311 311 311 310 311 313 314 314 315 315 315
317 318 316 313 309 308 309 311 314 316 316 318 317 316 317 316 315 314 313 313 313 314 315 315 315 315 315 314 313 312 312 312 312 311 312 312 311 309 310 313 313 314 314
323 320 318 320 318 320 319 319 319 319 317 319 318 316 317 317 316 315 314 314 314 315 316 316 315 315 315 314 313 312 312 312 312 312 311 312 314 314 313 311 310 310 310
325 324 318 321 323 324 324 323 322 320 321 322 322 318 315 317 317 315 315 314 315 315 315 315 315 314 313 313 312 311 311 311 311 312 312 311 312 315 315 314 314 313 311
326 326 319 322 323 325 325 324 324 323 323 324 323 322 318 314 316 315 315 315 315 315 315 315 314 313 312 312 312 312 311 310 309 311 313 314 314 313 314 315 314 314 314
327 327 324 322 323 324 326 326 326 325 326 326 325 325 321 318 317 316 317 316 316 316 315 314 313 312 312 312 312 312 310 308 307 308 311 314 314 315 314 314 313 314 313
328 329 327 323 325 325 326 326 326 326 326 326 326 325 323 320 318 318 319 319 318 317 316 314 313 312 312 311 310 309 308 306 304 303 304 305 309 313 313 313 313 313 314
328 329 328 324 327 326 326 325 325 324 325 326 325 325 323 321 319 319 319 319 317 315 314 312 311 311 311 310 309 308 306 305 304 303 303 302 302 302 303 303 304 309 313
326 329 328 326 327 324 325 325 324 324 324 324 324 325 322 321 320 320 318 315 313 312 311 311 310 309 309 308 307 306 305 303 300 300 300 302 303 302 302 303 305 306 306
325 327 329 327 326 326 323 325 323 324 324 321 320 321 319 319 318 317 314 313 312 311 310 309 308 306 305 304 301 299 299 298 298 298 300 303 304 305 305 306 306 307 309
324 325 328 327 325 325 325 323 322 320 319 318 318 317 316 315 314 313 312 311 310 310 309 305 301 299 297 295 295 295 295 295 296 300 300 299 301 301 301 302 304 305 306
325 328 328 327 324 323 322 320 320 320 318 314 314 313 312 311 310 310 310 310 309 306 300 297 296 295 294 294 294 294 293 296 298 295 299 299 295 295 295 295 296 297 301
328 327 325 324 320 318 319 318 316 314 314 314 313 311 311 311 311 311 309 305 301 297 296 295 294 293 293 293 294 294 295 295 296 295 294 294 294 294 294 294 295 295 295
321 319 317 316 316 314 313 313 312 312 312 312 312 311 311 310 307 303 300 297 296 295 294 293 292 292 291 292 293 294 295 295 295 295 294 294 294 294 293 293 294 294 294
315 315 315 314 314 314 314 314 313 313 313 312 312 311 309 303 300 299 300 299 296 296 294 293 292 292 292 292 292 292 293 293 294 293 293 293 292 293 293 293 293 292 293
316 315 315 315 315 315 315 314 314 313 312 311 310 308 303 301 300 299 299 298 297 297 296 295 293 291 291 291 291 291 291 291 292 292 292 293 293 292 292 293 293 292 292
316 316 316 315 315 314 313 313 312 311 309 308 305 301 300 301 300 298 298 298 298 298 297 295 292 291 291 291 290 290 290 290 291 292 292 291 291 291 291 291 292 292 292

GFSSE_850_thetae_033.txt.gz
Theta_e
337 337 337 336 335 334 333 333 332 331 332 332 332 330 328 325 323 320 316 314 312 312 311 311 311 311 311 311 311 311 312 313 313 315 317 320 322 323 325 329 322 327 327
337 337 336 335 335 334 333 332 332 332 332 330 327 320 316 314 314 313 311 310 310 307 307 306 307 307 308 308 309 311 312 312 313 315 317 322 324 324 328 329 326 323 323
337 336 336 335 334 333 332 332 332 330 327 320 315 314 313 313 310 310 310 308 307 307 307 307 307 307 307 307 307 307 310 313 315 317 321 323 327 328 329 328 326 325 323
337 336 335 334 333 333 332 330 327 320 315 314 313 313 312 309 310 311 310 308 308 308 308 309 308 308 308 308 307 307 308 310 314 319 322 325 328 327 326 326 326 324 325
336 335 334 334 334 332 328 321 316 315 314 313 312 312 308 310 311 310 310 310 310 310 311 312 312 312 310 310 310 310 308 308 311 316 323 325 327 326 327 327 327 326 327
335 335 335 334 332 326 317 315 314 313 312 312 312 309 310 311 311 311 312 313 314 313 311 311 312 313 313 313 312 312 313 311 309 316 321 326 327 326 324 324 325 323 323
335 335 335 333 323 317 315 314 312 311 312 312 310 311 313 314 315 313 313 313 311 310 310 310 310 310 310 310 310 310 311 312 314 316 321 323 324 324 320 319 320 320 320
335 335 332 321 316 315 314 312 311 311 311 311 315 315 315 315 313 312 312 311 311 311 311 311 311 311 312 311 311 310 310 309 310 313 315 318 319 319 319 320 321 320 319
335 327 317 315 314 314 312 310 311 311 311 316 316 316 315 314 313 312 312 311 311 311 311 312 312 312 312 312 312 312 312 312 310 309 310 310 312 313 314 314 314 315 316
323 316 315 313 312 311 309 310 310 311 316 317 318 316 315 314 313 312 312 312 312 313 313 313 313 313 313 313 313 312 312 312 312 312 311 309 309 309 309 309 311 313 313
315 314 313 310 309 308 310 310 311 315 318 317 317 317 316 315 314 312 312 313 313 314 315 315 315 314 314 314 313 312 312 312 312 312 312 312 311 310 310 310 309 309 309
316 317 313 309 308 309 310 313 316 317 318 318 317 317 317 316 315 314 313 314 314 315 315 316 315 315 314 313 312 313 313 312 311 311 311 311 312 312 311 311 310 311 310
320 318 317 315 315 316 318 319 320 319 321 322 320 317 318 318 318 317 316 314 315 315 315 315 315 314 313 312 313 313 313 311 310 309 308 309 311 312 313 313 313 313 313
323 320 320 322 323 323 324 324 324 323 324 325 325 323 320 320 319 317 317 316 316 315 315 315 314 313 312 312 313 313 312 311 309 307 306 306 308 311 313 313 313 314 313
325 324 320 323 324 324 325 326 326 326 326 327 327 325 323 319 319 318 317 317 317 317 316 316 315 313 313 312 312 312 311 311 309 307 306 305 304 305 309 312 313 312 312
327 326 322 323 324 325 325 325 326 326 326 326 326 325 324 322 320 319 318 319 319 318 317 315 313 312 311 311 310 309 309 308 307 305 304 303 303 303 303 303 305 308 310
327 327 327 323 325 325 326 326 325 324 324 325 324 323 323 323 320 319 319 319 317 315 312 311 310 309 308 307 305 304 303 302 301 300 300 300 300 301 303 302 302 303 304
325 327 327 325 326 326 325 325 324 321 322 324 324 323 323 321 320 319 317 314 312 311 310 310 308 305 302 300 298 297 297 297 296 296 297 299 300 301 302 303 304 304 303
324 326 327 327 326 325 322 320 322 321 322 322 321 320 319 317 316 314 312 311 310 309 308 304 300 298 296 296 295 295 295 295 295 295 296 299 298 297 298 299 300 302 304
323 323 326 327 326 324 320 322 321 320 319 319 319 317 315 313 311 310 310 310 309 305 300 297 296 296 295 294 294 294 294 294 295 297 297 295 297 297 294 294 294 295 295
325 325 326 327 326 322 322 320 318 318 317 314 314 313 311 310 310 310 309 304 300 298 297 296 296 296 295 294 293 295 295 295 294 294 295 293 293 293 293 293 294 294 294
326 326 326 325 320 320 319 317 315 313 313 313 312 311 311 310 309 306 303 300 299 299 298 297 296 296 294 293 292 296 296 296 297 293 293 294 293 292 293 293 294 293 293
322 319 319 316 315 315 314 313 313 312 312 312 312 311 310 310 307 302 299 297 297 296 296 297 297 297 295 292 291 294 295 295 294 295 294 295 294 294 294 294 293 294 293
315 314 314 314 314 314 314 314 313 313 313 312 311 310 309 305 301 300 298 297 297 297 297 297 297 296 293 293 291 292 292 293 293 292 293 293 293 293 293 292 292 293 292
315 315 315 315 314 314 314 314 313 313 311 310 309 307 302 301 300 299 299 298 297 297 298 298 295 292 292 291 293 292 292 292 292 292 291 291 291 291 292 291 291 292 293
315 315 315 315 315 314 314 312 311 310 309 307 304 301 300 300 300 299 299 298 298 298 298 295 293 293 292 291 290 291 291 291 291 290 290 290 289 290 290 290 290 289 289

GFSSE_850_thetae_036.txt.gz
Theta_e
341 338 336 335 334 333 332 331 330 330 330 331 331 330 328 325 322 318 314 313 312 311 310 309 308 308 309 309 310 310 311 312 313 315 318 321 323 324 326 328 328 332 327
339 337 336 336 334 333 333 332 331 332 332 330 327 321 316 313 313 312 310 310 308 306 306 306 306 306 307 307 307 308 311 313 315 318 322 327 327 327 330 328 326 325 322
338 338 336 335 334 333 332 332 332 332 329 323 317 314 313 312 309 310 308 307 307 308 308 308 308 308 308 308 307 307 308 311 315 319 323 328 331 328 326 326 326 325 325
337 337 335 335 334 333 332 332 331 327 319 315 314 313 310 310 310 309 308 308 309 309 310 310 310 310 310 310 310 309 308 308 311 320 327 329 329 328 326 327 327 325 327
338 338 335 334 333 333 332 330 324 318 316 314 313 310 310 311 310 310 310 310 312 313 312 312 312 312 312 312 312 312 312 310 311 323 326 329 329 328 325 326 325 325 325
337 339 334 334 334 332 329 322 319 316 314 313 311 310 311 311 311 312 313 314 311 310 311 311 311 310 309 309 309 309 310 311 318 319 321 325 327 325 323 320 320 323 321
338 338 334 334 332 327 321 318 316 313 313 312 310 311 312 314 314 313 312 310 310 310 310 310 310 310 311 312 312 311 311 310 314 315 317 319 319 319 319 319 320 321 320
335 336 335 332 327 320 318 315 312 313 313 311 313 315 315 313 313 312 311 311 311 311 311 311 312 312 312 312 312 312 312 312 317 316 314 315 311 312 314 314 315 315 316
336 336 334 327 321 318 315 312 313 313 312 316 316 315 314 313 313 312 311 311 311 312 312 313 313 313 313 313 313 313 313 313 318 318 317 317 310 309 309 309 310 311 312
335 335 331 331 327 315 311 312 313 312 318 317 317 316 315 313 312 312 312 312 312 313 314 314 314 313 313 313 313 313 314 316 317 317 317 315 312 311 310 310 310 310 310
334 331 330 329 327 325 322 313 313 317 319 319 318 317 317 323 317 317 313 313 313 314 314 314 314 313 313 314 313 314 315 315 315 315 314 309 309 310 311 311 310 311 311
327 324 316 313 312 311 320 314 314 320 324 326 324 320 325 319 322 321 314 314 314 315 315 314 314 314 314 315 314 314 314 313 313 312 312 309 307 307 308 310 311 312 312
327 325 321 310 309 312 317 321 325 326 323 322 320 322 322 321 319 323 316 316 315 315 316 316 315 315 315 314 313 313 313 312 311 311 310 310 308 307 307 308 310 311 312
326 324 315 309 311 313 322 325 322 326 325 327 324 322 321 323 320 318 317 316 316 316 316 316 315 315 314 313 313 313 311 311 311 310 310 309 306 306 305 305 308 309 311
325 325 320 317 318 319 323 325 325 325 327 327 327 325 324 321 320 319 318 318 318 317 316 316 314 313 312 311 311 310 309 309 309 309 308 307 304 302 303 304 304 304 308
326 326 323 322 321 323 324 325 326 326 326 327 326 323 323 323 321 320 319 319 318 317 316 313 312 311 310 309 308 307 306 306 306 305 304 306 303 301 300 301 302 303 303
326 327 325 323 324 324 324 325 325 324 324 323 323 323 323 323 322 320 319 318 315 312 311 310 309 307 307 306 304 304 305 303 303 305 303 304 304 303 299 299 300 302 303
327 328 326 324 325 326 326 324 322 317 319 320 323 323 322 321 320 318 314 312 311 310 308 305 304 303 303 303 302 301 302 301 300 304 303 301 302 301 301 300 297 297 298
327 329 326 326 325 325 323 321 321 320 320 321 321 319 317 316 314 312 311 310 309 306 303 301 301 301 302 302 300 300 300 300 300 302 302 301 301 300 300 299 296 295 295
329 327 325 326 325 324 321 316 319 320 320 318 318 316 314 313 311 310 310 308 304 302 301 299 299 300 300 301 299 299 300 300 301 301 300 299 299 299 298 298 298 297 296
326 324 324 325 326 324 318 321 322 320 318 317 314 313 312 310 310 309 305 303 301 301 297 297 299 299 299 300 299 298 298 300 301 300 299 298 298 298 297 297 297 297 297
325 325 323 324 320 320 320 319 317 316 314 313 313 312 310 310 309 305 302 301 300 300 301 300 300 299 299 299 299 297 298 298 298 299 297 298 297 297 297 297 296 296 296
326 325 322 322 319 315 315 314 313 313 312 312 311 310 310 308 303 302 300 299 299 301 300 300 300 299 298 298 298 297 297 297 296 296 296 296 296 296 295 295 295 295 295
322 318 323 320 318 314 313 314 313 314 314 313 311 310 307 304 302 300 298 299 300 301 301 300 299 299 298 297 297 296 296 296 295 295 295 295 294 293 293 293 293 293 293
322 322 320 318 317 314 313 315 315 314 313 311 310 307 306 304 300 300 301 301 301 301 301 300 299 299 298 297 297 295 295 294 294 294 293 293 293 293 292 292 292 292 292
317 317 316 315 315 314 314 314 313 312 311 309 307 305 304 303 303 302 302 302 301 301 301 300 299 298 297 297 296 295 294 294 293 293 293 292 292 292 292 291 291 291 290

GFSSE_850_thetae_039.txt.gz
Theta_e
342 336 333 330 328 327 328 328 327 326 327 330 331 331 329 326 321 315 313 311 310 309 307 307 307 307 307 307 308 309 311 313 315 317 322 326 324 326 329 327 333 330 324
342 337 334 332 331 330 329 328 328 330 331 331 330 327 320 315 313 310 310 308 306 306 307 308 308 308 308 308 308 308 308 311 315 317 330 331 329 327 327 327 326 325 324
342 338 335 333 333 332 331 331 331 332 331 328 321 315 313 311 309 309 308 307 308 308 309 309 309 309 310 310 310 309 308 309 315 326 327 332 329 324 326 327 326 325 326
341 338 336 334 333 333 332 332 332 331 325 317 314 313 309 310 309 308 308 309 310 311 312 312 312 312 312 311 311 312 311 312 323 327 328 329 331 326 325 325 325 325 327
340 340 336 334 333 333 333 332 330 322 316 314 313 310 310 310 309 309 310 312 312 312 311 311 311 310 309 309 309 309 311 317 320 322 326 327 328 324 323 320 319 321 322
338 338 334 334 333 333 332 329 322 317 314 313 311 310 311 310 310 312 313 311 310 310 310 309 309 310 311 312 312 311 311 315 316 317 320 323 318 318 318 318 319 320 320
337 335 334 334 333 332 327 321 317 315 313 312 310 311 311 313 314 313 310 310 310 310 310 311 311 312 312 313 313 313 313 316 319 317 316 317 310 310 312 313 314 315 316
336 334 334 333 331 326 321 318 315 314 313 310 312 313 315 313 313 311 311 311 311 311 312 312 313 313 313 313 314 314 314 314 319 319 319 319 312 311 310 309 309 310 312
336 336 334 331 327 321 318 316 314 314 311 313 316 316 313 313 313 312 312 312 312 312 313 313 313 313 313 313 313 314 315 317 318 318 318 319 309 310 311 311 311 310 310
336 335 334 328 320 317 316 314 314 312 316 317 317 316 314 313 313 313 312 312 313 314 314 314 314 313 313 314 314 314 315 317 317 317 317 316 311 308 308 310 311 312 312
334 331 331 330 330 329 325 314 313 316 318 319 318 318 322 324 323 320 314 313 314 314 315 315 314 314 315 317 316 315 316 316 315 315 314 314 312 310 309 308 308 310 312
332 331 331 330 328 326 324 314 315 320 322 327 326 322 328 327 326 326 314 314 314 314 315 316 316 316 317 317 317 316 316 315 315 314 314 312 312 310 308 308 307 308 309
330 330 329 329 324 323 324 324 325 327 328 328 329 329 328 327 327 325 325 322 322 319 321 319 319 318 317 317 316 316 315 314 314 314 313 312 311 308 305 306 306 306 307
328 326 326 325 324 324 324 326 327 328 328 329 329 326 328 327 327 326 323 323 321 320 319 319 318 317 316 316 315 314 313 313 312 312 312 311 309 305 303 302 303 304 304
326 325 324 323 323 323 327 329 328 329 329 326 327 326 326 326 325 324 322 321 320 318 317 317 316 315 314 314 313 312 311 310 310 309 309 308 306 305 303 301 301 301 302
325 326 325 325 326 327 330 329 328 327 328 328 327 327 323 322 323 324 321 319 317 316 316 314 313 311 310 310 309 308 306 307 307 306 307 306 305 305 304 302 300 299 300
326 328 329 329 329 329 328 327 326 324 320 323 322 322 323 322 323 321 319 318 317 313 311 310 308 308 307 306 306 305 304 303 305 303 304 306 305 304 304 302 300 299 297
329 330 330 329 326 325 324 325 324 319 320 320 320 322 322 322 321 318 317 314 311 310 308 307 305 305 305 304 305 303 302 302 303 302 302 304 304 303 302 302 300 298 296
330 332 327 323 324 325 325 325 322 321 319 319 321 320 319 317 315 313 311 310 308 307 306 305 303 303 302 302 302 302 301 302 302 302 304 304 302 301 301 300 299 298 298
330 331 329 326 324 323 324 323 320 318 317 320 319 317 315 313 311 311 309 308 307 306 305 304 303 302 302 302 302 302 301 300 301 304 304 302 300 300 300 300 299 299 299
331 330 329 328 326 325 324 321 316 319 321 318 316 314 313 312 310 309 307 306 305 304 303 303 303 302 302 301 301 301 300 300 301 301 301 301 300 299 299 299 299 298 298
332 329 327 326 325 325 320 321 322 319 317 315 313 313 313 310 308 306 307 306 305 303 303 303 303 302 302 300 300 300 300 299 300 300 299 299 298 298 298 298 297 296 296
330 329 331 326 326 325 324 320 318 317 315 314 313 313 311 309 307 306 305 304 303 303 303 303 302 302 301 300 299 299 299 299 298 298 297 297 297 297 296 295 295 295 295
331 331 328 326 324 322 319 318 317 316 316 315 314 313 311 309 307 306 304 304 304 303 303 302 302 301 301 300 299 298 298 298 297 296 296 296 295 295 295 295 294 294 294
328 327 326 325 322 319 318 317 317 317 317 315 314 313 310 308 306 305 305 304 304 303 302 302 302 301 300 300 299 298 297 297 296 296 296 295 294 294 294 294 294 293 293
326 325 323 321 319 318 317 318 317 316 314 313 312 309 307 305 304 304 304 304 303 301 301 300 300 299 300 299 299 297 297 296 295 295 294 294 293 293 293 293 292 292 292

GFSSE_850_thetae_042.txt.gz
Theta_e
341 332 327 326 332 337 337 336 329 325 327 330 331 329 326 319 314 312 310 309 307 306 307 307 308 308 308 308 308 308 309 311 315 325 330 329 326 324 327 328 329 325 322
340 332 329 328 331 335 334 328 326 328 331 331 328 321 315 313 310 309 308 307 307 308 309 309 309 310 310 310 310 309 309 317 322 327 329 332 327 325 326 326 326 325 325
339 333 330 328 330 330 327 327 329 331 331 327 318 314 312 309 309 307 307 308 309 310 310 311 311 311 311 311 312 311 314 326 327 327 330 331 328 325 324 325 325 325 325
337 333 332 330 329 329 329 331 332 331 326 317 314 312 308 309 308 308 309 310 312 312 311 311 310 309 309 309 309 313 320 322 323 329 329 328 327 323 322 320 318 321 322
338 337 333 332 332 332 332 332 331 324 316 314 312 309 310 309 309 310 312 312 311 311 310 309 309 311 311 311 311 313 316 317 318 323 323 321 319 314 316 317 318 319 319
338 336 334 333 333 332 333 331 323 316 314 312 309 310 310 310 311 313 311 310 310 309 310 310 311 312 313 313 314 314 315 318 318 319 318 317 312 309 310 312 314 315 316
337 334 333 333 333 332 329 323 316 314 313 311 309 311 311 312 313 311 310 310 310 310 311 312 313 313 313 314 314 314 315 319 319 319 320 319 313 311 311 310 309 309 311
336 330 329 333 332 328 320 318 315 313 312 310 311 312 313 313 311 310 311 311 311 312 313 313 313 313 313 313 314 314 315 317 318 318 321 320 315 309 308 310 311 311 310
329 328 331 332 330 322 318 316 314 313 310 312 314 314 313 312 311 311 311 311 312 313 313 313 313 313 313 315 315 315 316 317 316 316 316 316 316 312 310 308 308 310 311
324 330 332 329 323 319 316 313 313 311 313 316 315 313 313 313 313 312 312 312 313 313 314 314 314 314 316 317 317 316 316 316 315 315 315 314 313 312 311 309 308 308 310
332 331 327 321 318 316 313 314 313 314 316 316 316 320 325 325 325 322 313 313 313 314 315 315 315 316 318 318 317 317 316 316 315 315 315 314 314 313 311 307 307 307 307
329 331 331 329 329 325 313 314 314 317 319 319 318 328 327 327 326 327 322 314 315 317 319 320 319 318 319 318 317 317 316 315 314 314 314 314 313 312 309 305 304 304 305
331 331 330 329 326 325 320 314 319 325 328 328 326 328 328 326 325 326 324 323 323 322 322 320 319 319 317 316 315 315 314 313 312 312 312 311 311 309 307 305 302 302 303
330 329 329 327 325 324 323 326 326 328 327 327 326 326 325 325 326 324 324 323 322 321 320 319 318 317 317 315 313 313 311 311 308 309 309 309 308 307 306 304 302 301 300
327 327 326 322 325 323 327 326 329 328 328 326 325 323 325 326 324 323 322 322 321 320 318 317 317 316 313 311 309 309 308 307 305 307 306 306 307 306 305 304 304 302 300
326 325 323 320 321 327 328 328 327 327 326 325 327 327 326 324 322 324 323 321 319 318 317 314 312 310 308 307 307 307 306 304 303 304 305 303 305 306 304 304 303 301 301
326 325 325 325 328 329 328 326 326 326 325 321 324 322 322 323 323 323 322 321 319 316 311 310 309 306 305 304 303 304 304 302 301 302 303 302 304 305 303 302 302 301 300
328 328 328 329 329 328 327 326 326 325 320 319 319 319 321 322 322 321 320 318 313 310 309 307 305 304 301 301 301 302 302 302 301 302 302 304 304 304 302 302 301 300 299
329 330 330 330 328 326 325 324 324 323 319 319 318 319 319 319 318 316 314 312 310 308 306 305 303 300 300 301 302 301 302 301 301 300 301 305 304 302 300 300 300 299 299
331 330 329 327 325 324 323 323 324 323 322 320 319 320 317 315 313 312 310 309 308 306 305 303 302 303 303 302 301 301 300 301 300 301 302 302 303 301 300 299 299 299 298
332 331 329 328 324 324 323 324 323 321 317 319 320 316 314 313 312 310 308 308 306 306 304 303 303 303 302 302 301 300 300 300 300 300 300 300 299 299 298 299 297 297 296
331 332 330 328 327 325 324 324 319 321 320 318 316 314 313 312 310 308 308 307 306 303 301 303 303 302 302 302 301 300 300 299 300 299 298 297 297 297 297 297 296 295 295
332 332 329 328 326 325 324 323 321 317 316 315 314 313 313 311 309 308 306 305 304 303 304 303 303 302 302 301 299 301 300 299 298 298 297 296 296 296 295 295 295 295 294
333 331 328 327 324 326 324 320 318 317 316 315 315 314 313 312 310 308 306 305 304 304 303 302 302 301 301 301 300 300 299 299 298 297 296 295 295 295 295 294 294 294 293
330 329 329 327 326 324 318 318 317 317 316 316 315 314 313 310 309 306 305 305 304 304 303 302 301 301 301 300 300 300 299 298 297 297 296 296 295 294 294 293 293 293 292
330 329 328 325 325 321 319 318 317 318 316 315 314 313 310 308 306 304 304 304 304 304 300 299 298 298 297 298 299 298 299 297 297 296 296 295 294 293 293 293 292 292 291

GFSSE_850_thetae_045.txt.gz
Theta_e
329 326 337 339 338 338 336 334 326 326 329 330 327 321 314 311 309 308 307 307 308 309 309 309 310 311 311 310 309 314 319 325 328 329 330 329 326 326 326 326 326 325 325
332 326 327 334 337 337 336 328 326 329 330 328 320 313 311 308 309 307 308 309 309 310 311 311 311 311 311 311 310 326 326 326 327 328 331 328 326 324 324 324 325 325 325
333 328 327 330 335 335 329 326 329 331 329 320 313 312 308 309 308 309 309 311 311 311 310 309 309 309 309 312 321 323 320 320 327 329 328 326 318 318 321 319 318 320 322
333 328 330 331 333 329 327 329 331 329 321 314 312 309 309 309 309 310 311 311 310 309 309 309 310 310 310 315 318 317 317 321 327 326 324 320 313 311 314 316 317 317 318
331 329 330 330 328 328 330 332 330 321 314 312 310 309 309 310 311 312 310 310 309 309 310 311 312 313 314 313 315 316 318 320 321 321 319 317 313 310 310 310 312 314 316
332 330 329 329 330 331 332 330 322 315 313 310 308 310 310 311 312 310 310 310 310 311 312 312 313 314 314 314 314 316 319 319 320 319 319 319 317 309 309 311 310 309 310
333 332 332 332 332 332 330 322 315 313 312 308 310 310 311 312 310 310 310 310 311 312 312 313 313 313 313 314 314 314 316 318 317 318 320 317 315 313 311 308 309 311 311
334 333 332 330 328 330 323 317 314 312 309 310 311 312 312 311 310 310 311 311 312 313 313 313 313 313 314 316 315 315 315 315 316 315 315 315 314 313 312 311 308 308 310
332 330 328 325 325 325 318 314 313 311 310 311 313 312 311 310 311 311 311 312 313 313 313 313 313 314 317 317 317 316 316 316 315 315 314 314 314 314 313 312 307 307 309
329 326 324 326 327 321 316 313 312 310 313 314 312 312 311 311 311 313 312 312 313 314 314 314 315 316 318 317 317 317 317 316 315 315 315 314 314 313 312 311 306 305 306
326 321 327 327 321 316 313 312 311 314 315 314 314 318 319 321 322 318 314 313 313 314 316 319 319 318 318 318 317 317 317 315 313 314 314 313 313 312 311 308 305 303 303
326 329 327 321 318 314 312 312 314 317 315 317 326 326 323 324 324 322 323 320 320 321 321 320 319 319 319 318 317 316 315 313 311 309 311 311 310 309 308 307 305 303 302
328 326 327 327 321 312 312 314 318 318 320 322 327 328 326 325 323 325 324 323 322 321 321 320 319 318 318 317 314 313 312 310 309 307 307 309 308 307 307 305 304 303 302
330 329 330 327 325 319 312 319 323 326 324 324 321 328 327 325 324 325 324 323 321 320 320 320 319 318 317 313 310 309 308 308 307 304 307 306 305 304 305 305 304 303 303
330 330 327 325 323 323 325 326 328 326 325 325 323 323 325 323 326 325 323 323 322 321 320 318 318 315 311 309 307 307 307 306 305 302 303 304 303 302 305 304 303 303 303
328 327 327 325 322 325 327 327 327 327 326 326 324 324 323 325 324 322 322 322 321 320 319 315 312 310 307 304 302 300 302 302 302 301 302 302 302 302 305 304 302 302 302
326 324 319 324 323 328 326 326 327 327 325 322 325 325 324 324 323 322 322 322 320 319 315 311 310 306 302 299 299 300 302 302 302 300 301 301 304 304 303 302 301 301 301
325 322 316 323 325 327 327 325 326 326 324 323 320 321 319 321 321 322 322 320 316 312 311 309 306 302 300 300 299 300 300 300 299 299 300 301 304 304 302 300 300 300 300
326 322 323 321 323 326 325 325 325 324 321 318 318 318 319 320 320 318 316 313 311 310 309 306 303 300 301 301 301 301 300 299 300 300 300 301 301 301 301 300 300 299 298
327 326 323 326 327 328 326 325 325 324 322 320 319 319 319 318 314 313 311 310 310 308 307 304 301 302 302 301 302 301 300 298 299 300 300 300 300 299 299 298 298 297 296
328 329 328 326 327 327 324 322 323 324 323 321 321 319 319 313 312 311 310 309 308 307 306 301 302 302 301 301 301 301 300 299 299 298 300 299 299 298 297 297 297 296 295
329 330 330 328 325 323 322 323 323 322 319 319 319 318 314 312 311 310 309 308 308 307 304 301 301 300 300 302 302 301 300 299 299 299 298 298 296 296 295 295 295 295 295
331 331 329 328 326 325 324 324 320 320 319 318 316 313 312 312 311 310 309 308 307 304 303 303 302 300 302 301 300 301 300 300 299 299 298 297 297 296 294 294 295 294 293
332 332 330 329 327 324 324 322 321 320 315 313 314 314 313 313 312 310 308 306 305 304 304 303 303 302 301 301 300 300 300 300 300 299 297 297 296 295 295 294 294 292 293
331 332 330 327 326 325 323 323 318 315 316 316 315 314 314 312 311 308 306 305 305 304 304 304 303 298 297 297 296 297 299 299 298 299 297 297 295 295 295 293 292 292 293
330 331 329 326 324 324 324 319 318 317 317 316 315 314 313 311 309 308 306 305 304 304 304 302 294 294 296 296 296 297 298 299 298 297 296 296 295 294 294 293 292 291 290

GFSSE_850_thetae_048.txt.gz
Theta_e
330 338 340 338 337 335 335 331 325 327 329 326 318 312 310 308 307 307 308 309 310 311 311 311 311 310 312 322 323 325 326 327 330 329 327 323 322 323 324 324 324 324 324
330 336 337 338 337 336 334 326 326 329 328 320 312 310 308 308 308 309 310 311 311 310 309 309 310 312 320 318 318 321 323 325 328 326 321 315 313 319 319 318 319 320 321
330 337 338 337 337 336 330 326 329 329 323 313 311 308 309 309 309 311 311 310 309 309 309 309 311 319 317 318 317 318 326 327 323 321 316 315 310 310 313 315 316 317 318
329 337 338 338 336 334 326 329 331 326 315 312 308 309 309 310 311 311 310 309 309 310 311 312 312 317 316 319 319 319 319 320 320 317 316 317 315 309 310 309 311 314 316
335 338 339 336 335 327 328 331 328 317 312 310 308 309 310 311 311 310 309 310 311 312 313 314 314 314 314 317 318 318 319 320 319 319 319 318 316 312 310 309 310 309 310
334 335 335 334 328 328 331 329 319 313 311 308 309 310 311 311 310 310 310 311 312 312 313 314 314 313 313 314 316 317 317 317 319 316 315 315 314 313 312 310 309 309 310
334 334 332 328 329 332 330 321 314 312 309 309 310 311 311 310 310 310 311 312 313 313 313 313 313 314 315 315 314 315 315 315 316 315 314 314 314 313 313 312 309 308 309
336 332 329 331 332 330 322 315 313 310 309 310 311 312 310 310 311 312 313 313 313 313 313 313 314 315 316 316 316 316 315 315 315 315 314 314 314 314 313 311 309 306 308
332 332 331 329 326 321 317 313 311 309 310 312 312 311 310 311 311 312 313 313 313 313 313 314 314 316 317 317 317 317 317 316 314 314 314 314 313 313 312 310 308 304 305
330 327 326 321 317 319 315 312 310 310 313 313 312 311 311 311 312 312 313 313 313 313 314 316 317 318 318 318 318 317 317 315 313 312 312 313 313 312 310 309 307 305 303
326 324 322 320 318 318 313 312 310 313 313 312 312 311 311 312 313 312 312 313 314 315 318 319 319 319 318 318 318 317 315 313 310 309 307 310 309 309 308 307 306 304 302
325 323 321 322 323 316 313 311 313 314 313 313 315 314 315 319 318 323 321 321 321 321 320 319 319 319 318 318 317 314 311 310 308 307 305 307 307 306 305 304 304 304 303
324 324 326 322 321 315 312 312 316 316 321 319 323 324 321 323 323 324 323 322 321 321 320 320 319 319 318 316 313 310 309 308 307 306 304 306 305 304 304 303 304 304 303
326 327 323 323 317 314 312 315 316 316 324 323 326 326 324 326 325 326 324 322 321 321 320 319 319 318 316 311 309 307 305 305 305 304 303 303 303 302 302 304 304 304 304
325 325 325 322 314 313 314 319 321 323 319 319 327 327 327 325 324 324 323 322 321 320 319 319 318 314 311 308 303 301 300 302 302 302 301 301 302 302 303 304 304 304 304
326 327 329 325 319 313 320 323 324 323 321 321 321 325 326 324 326 324 323 322 322 321 320 318 312 309 306 302 299 299 300 301 301 301 300 301 302 304 304 303 302 302 302
329 329 327 323 321 323 325 326 326 324 326 327 325 323 323 324 325 324 322 322 322 321 319 312 309 306 302 300 299 299 299 299 299 298 298 300 303 303 302 301 300 300 300
329 326 325 323 321 324 325 326 326 327 327 326 325 326 324 322 321 322 323 322 321 317 311 309 307 303 300 300 299 299 300 299 297 299 300 300 302 300 300 299 299 298 298
325 325 326 324 322 326 327 328 327 327 326 325 324 320 319 319 321 321 321 318 313 310 309 308 305 301 300 300 299 300 300 300 298 299 299 300 300 299 299 298 297 297 297
324 319 313 318 323 327 328 327 326 326 325 322 318 318 319 319 319 317 314 311 310 309 309 307 303 300 300 298 299 301 300 298 299 297 298 299 299 298 297 297 297 296 296
325 321 314 316 322 325 326 325 324 324 324 321 321 319 319 318 314 312 311 310 309 308 307 304 301 301 299 297 297 297 296 299 298 298 298 298 298 298 297 296 295 295 295
326 326 324 321 321 323 324 323 324 324 323 323 321 319 317 314 312 311 311 309 309 308 305 303 303 301 299 299 297 297 299 298 298 299 298 298 298 297 297 295 294 294 294
326 327 328 328 326 325 326 325 323 323 321 319 318 317 315 313 311 311 311 310 308 306 305 304 302 302 302 301 299 299 299 299 298 298 299 298 297 297 296 295 295 294 294
327 328 329 329 328 326 325 323 323 324 319 318 319 317 313 312 312 312 312 309 307 306 305 304 304 303 303 298 295 295 295 296 298 299 298 297 297 297 296 294 295 294 293
328 329 329 329 328 326 324 324 323 321 320 317 313 313 314 314 312 310 309 306 306 305 305 304 304 303 300 293 294 294 295 296 298 298 297 297 296 296 295 293 294 294 292
329 329 329 329 329 326 324 322 321 319 316 315 315 314 314 313 311 310 309 308 306 305 304 303 301 295 292 292 292 293 295 296 297 297 295 296 296 295 294 293 293 292 290

GFSSE_850_thetae_051.txt.gz
Theta_e
334 339 340 337 335 335 333 330 325 327 327 322 314 310 308 308 307 309 309 311 311 311 311 311 319 321 323 324 325 325 326 326 321 315 311 312 318 319 319 320 321 321 322
334 341 340 336 335 335 334 328 325 328 323 313 310 308 307 308 309 311 311 310 309 310 312 318 318 318 318 321 322 324 325 321 316 316 315 312 309 311 313 315 316 317 317
334 343 339 336 335 335 332 325 328 327 316 311 308 308 309 310 311 310 309 309 309 311 317 316 318 318 317 319 320 319 319 318 316 317 316 315 310 309 309 309 311 314 316
336 341 339 335 335 334 327 327 329 322 312 308 308 309 310 311 310 309 309 310 311 313 316 315 317 318 318 318 319 319 318 318 318 317 316 315 314 313 310 308 309 309 310
338 340 338 336 335 330 325 329 326 314 310 308 309 310 311 310 310 309 310 312 313 313 313 314 314 316 317 317 318 318 318 318 315 315 314 314 313 313 312 310 308 308 309
337 338 338 336 334 326 330 329 317 311 308 309 310 311 310 310 309 311 312 312 313 313 313 313 313 314 315 315 315 315 315 316 315 314 314 314 313 313 312 310 309 307 308
337 339 337 335 327 329 330 321 313 310 308 309 311 311 310 310 311 312 312 313 313 313 313 314 315 315 315 315 315 315 315 314 314 314 313 313 313 312 311 310 308 306 307
336 338 335 331 328 330 322 314 311 309 309 310 311 310 310 311 312 313 313 313 313 313 313 314 315 316 317 316 316 316 316 315 314 313 313 313 312 312 310 308 308 306 304
330 331 330 331 327 319 314 312 310 308 310 312 310 310 310 311 312 313 313 313 313 313 314 315 317 317 318 318 317 317 316 315 312 311 310 310 311 310 308 307 305 305 304
325 329 329 323 318 316 314 312 309 310 312 312 310 310 311 312 312 313 313 313 313 313 315 317 318 318 318 318 318 317 314 312 310 308 306 307 307 308 306 304 303 302 302
329 329 323 320 319 315 313 311 309 312 313 311 310 311 311 311 312 313 313 313 313 314 317 318 319 319 319 318 318 315 312 309 307 306 304 305 308 308 305 304 303 301 302
323 321 320 317 316 312 310 310 311 313 312 311 311 312 316 317 314 313 314 314 316 318 318 319 319 319 318 318 316 312 309 307 306 305 303 306 305 308 305 304 302 303 303
325 323 323 322 317 313 313 312 314 313 314 314 319 323 323 322 323 322 321 321 320 320 319 320 319 319 318 316 311 309 306 304 303 303 302 303 303 305 307 306 304 303 303
321 320 318 317 319 318 313 312 315 313 320 324 323 323 323 322 324 324 323 321 321 321 320 320 319 318 316 309 306 303 301 300 300 300 301 300 301 302 306 305 305 306 304
320 322 323 321 321 316 312 316 316 323 325 325 326 324 323 324 323 324 323 322 321 321 320 319 318 315 309 305 301 300 299 299 299 299 299 299 300 302 304 305 304 306 304
323 326 322 322 318 313 313 317 317 322 323 324 326 326 325 324 324 324 323 322 321 320 319 318 316 310 307 302 300 299 298 299 299 298 298 298 301 303 303 303 303 304 303
323 322 321 321 315 313 316 318 321 320 321 321 321 325 323 324 325 324 323 322 321 319 318 315 310 308 302 300 299 298 298 299 298 296 298 299 300 303 302 301 300 300 300
325 324 325 324 318 313 319 324 324 324 324 325 326 324 323 325 325 324 323 322 321 319 314 310 309 306 301 299 298 297 298 298 297 298 299 299 301 300 300 299 299 298 298
325 326 329 324 318 315 322 326 326 325 325 326 326 325 325 323 322 322 322 322 320 313 310 309 308 302 300 298 297 298 298 297 298 298 296 298 299 298 298 297 297 296 296
328 329 329 324 322 323 325 325 325 326 327 327 325 324 319 319 320 321 322 318 311 310 309 308 305 302 300 298 298 298 296 297 299 297 298 297 297 298 298 297 297 296 295
329 328 327 326 323 322 324 325 327 328 327 325 322 318 318 319 319 318 314 311 310 309 309 307 304 302 301 300 299 298 297 298 298 298 298 296 297 297 296 297 296 295 295
328 327 325 325 324 321 324 326 327 327 326 323 319 319 319 318 317 314 311 310 310 310 307 306 304 303 302 301 301 299 296 295 297 298 296 297 297 296 297 297 295 295 294
327 325 323 318 316 317 323 327 327 326 324 321 321 321 320 318 316 312 311 311 310 308 307 305 304 304 303 303 301 296 295 295 295 295 296 297 297 296 296 296 295 295 294
326 325 324 320 317 319 322 326 326 325 324 323 323 321 318 317 313 311 311 310 308 307 306 305 304 304 303 301 296 293 293 294 296 297 297 297 296 295 296 296 295 294 294
326 325 325 322 323 323 325 326 326 326 323 323 320 318 317 314 312 311 310 309 309 308 306 305 304 303 300 294 292 292 292 293 294 296 298 297 295 294 294 294 294 293 293
326 325 325 325 326 326 327 327 325 324 323 322 319 317 314 312 312 311 309 307 307 306 306 304 302 299 294 292 292 293 293 294 295 296 296 295 294 294 293 293 293 292 292

GFSSE_850_thetae_054.txt.gz
Theta_e
337 339 338 330 329 328 328 327 325 326 325 320 314 311 309 307 307 309 310 311 310 311 314 317 320 323 325 324 326 323 316 315 315 314 311 309 310 312 314 315 317 319 320
338 339 337 331 330 329 329 328 325 326 322 313 310 308 307 308 310 311 310 310 311 316 319 318 319 321 322 325 321 317 317 317 317 317 315 311 309 309 309 310 312 314 316
338 340 336 332 332 330 330 326 327 325 316 310 308 307 309 310 310 309 310 312 316 317 318 318 317 319 319 318 318 318 317 317 317 316 315 315 313 311 309 308 309 309 312
338 338 336 332 332 331 329 326 327 320 311 308 307 309 311 310 309 309 311 314 317 317 317 317 316 316 317 318 318 318 317 315 315 314 314 313 312 312 310 309 308 308 309
337 338 335 333 332 329 326 328 324 312 308 308 309 311 310 309 310 310 313 315 315 315 315 316 317 317 317 317 317 317 316 315 314 313 313 313 312 311 310 308 308 307 308
336 338 336 334 332 326 328 327 314 310 308 309 311 310 309 310 311 312 313 313 313 313 313 314 314 314 315 314 314 314 314 314 313 313 312 312 311 311 309 308 307 306 307
337 337 336 335 330 328 329 320 312 308 309 310 311 310 309 311 312 313 313 313 313 313 315 315 315 315 315 315 315 315 315 314 314 312 311 310 310 310 308 307 306 306 305
337 337 336 333 330 329 320 313 309 308 309 311 310 309 311 312 312 313 313 313 313 314 315 316 316 317 317 317 316 316 315 314 311 309 308 307 308 307 306 304 303 304 304
335 334 333 331 329 320 313 310 308 309 311 311 310 310 311 312 312 313 313 313 313 314 315 316 317 317 318 318 317 316 313 311 309 307 305 304 306 308 304 303 302 301 301
328 330 329 323 316 315 311 309 309 311 311 310 310 311 312 313 313 313 313 313 313 314 316 318 318 318 318 318 317 315 311 309 306 305 303 303 306 309 304 302 301 301 301
325 323 324 324 317 313 311 310 310 311 312 310 310 311 312 313 313 313 313 313 314 316 317 318 319 319 318 318 316 312 309 306 304 303 302 302 305 308 308 303 302 301 301
324 325 326 319 318 317 316 310 309 312 311 310 311 311 312 313 313 313 313 313 315 317 318 319 319 319 319 317 313 309 306 304 302 301 301 302 303 309 308 305 303 302 302
328 326 321 319 318 316 311 309 310 313 311 311 312 313 312 313 313 314 316 319 319 319 319 319 319 319 318 314 309 306 303 301 300 300 301 301 301 304 307 305 305 305 303
323 320 319 318 320 314 310 310 312 313 311 312 315 320 320 321 321 321 322 321 321 320 320 320 319 318 316 310 306 302 300 299 299 299 299 299 299 300 309 307 307 306 305
320 320 320 316 312 311 311 310 313 313 316 320 324 324 324 322 323 323 323 321 321 321 320 319 318 316 311 306 302 300 299 299 298 298 297 297 298 301 307 306 306 306 305
321 321 322 316 315 314 313 312 314 313 322 323 324 324 324 323 323 324 323 322 321 320 319 319 316 311 308 303 300 299 298 298 297 297 297 298 300 302 303 303 303 304 304
320 320 318 318 321 316 313 314 315 320 323 325 326 326 325 324 324 324 323 322 321 320 319 317 312 309 306 302 299 297 297 297 296 297 297 298 301 302 302 302 301 300 300
320 324 325 320 320 315 313 315 316 322 324 323 323 325 324 324 323 324 324 322 321 319 318 314 309 308 304 300 297 297 296 295 297 297 296 298 300 300 300 299 298 297 297
324 325 321 322 319 314 313 317 317 318 322 324 324 325 325 324 324 324 323 322 321 319 315 309 309 306 302 299 298 298 297 297 298 297 297 298 296 296 298 298 297 297 296
322 324 323 324 322 316 314 319 322 325 325 325 326 326 325 325 323 321 321 321 320 315 309 309 307 303 301 300 300 300 297 296 297 297 297 297 294 295 295 296 296 296 295
324 325 324 327 325 319 314 321 325 325 326 326 325 325 324 321 319 320 321 321 316 309 309 308 305 303 303 302 301 300 297 295 296 296 296 294 295 295 295 296 296 296 295
324 325 327 328 327 322 318 320 324 324 325 326 326 325 320 318 319 320 319 314 310 309 309 308 305 304 304 303 302 299 295 295 296 295 296 295 295 296 294 295 296 295 295
326 325 325 326 324 324 323 321 323 325 325 325 325 323 319 318 318 317 313 310 309 309 308 306 305 305 304 303 301 296 294 293 293 294 293 295 296 295 294 294 296 296 295
326 326 327 326 325 324 324 321 321 324 324 324 325 323 320 319 317 313 310 309 309 308 306 305 304 303 303 301 298 293 292 292 293 294 295 295 295 295 295 293 294 294 294
327 327 326 327 325 323 323 322 322 323 325 325 323 322 321 318 314 312 310 309 308 306 305 304 303 301 299 296 293 292 292 292 292 294 295 295 295 294 292 292 293 294 293
328 328 327 326 325 323 321 319 321 324 325 324 322 321 320 316 313 311 310 309 308 306 306 306 307 301 302 300 292 292 292 292 292 293 294 294 294 292 291 291 292 292 292

GFSSE_850_thetae_057.txt.gz
Theta_e
339 340 329 331 330 329 330 332 330 326 325 325 322 317 312 308 307 308 309 310 310 312 317 322 323 322 324 322 317 317 316 316 316 314 310 309 309 309 311 311 313 317 319
337 339 332 328 329 328 325 324 325 325 323 316 312 309 307 308 309 310 311 311 313 318 320 322 323 322 321 317 316 316 316 316 316 316 315 313 310 309 309 309 310 311 313
338 339 333 327 327 326 325 326 326 322 314 310 308 307 308 310 311 311 311 314 317 318 320 321 321 317 316 316 316 316 315 315 314 314 313 316 313 310 309 308 308 309 309
338 338 335 328 327 326 326 326 323 315 310 308 307 309 311 310 310 311 314 316 317 316 316 316 315 316 316 316 316 315 314 313 312 312 312 316 317 310 309 308 307 308 309
340 338 335 331 327 327 327 326 319 311 308 308 309 311 309 309 311 314 316 316 316 315 314 314 315 315 316 316 314 313 313 313 312 312 316 316 320 311 308 307 307 307 309
339 338 334 332 328 327 327 323 313 309 308 309 311 309 309 310 313 315 315 314 314 313 313 314 314 314 314 314 315 314 314 314 312 311 311 311 317 308 306 306 306 305 306
338 335 334 333 328 328 326 319 311 308 309 311 309 309 310 312 313 313 313 313 313 314 315 315 315 315 315 315 315 315 314 312 310 308 310 314 310 305 304 303 303 304 304
336 336 335 334 329 327 313 309 308 308 310 310 309 310 312 313 313 313 313 314 315 316 316 316 316 317 317 317 316 314 311 309 307 305 308 315 305 303 302 302 301 301 301
334 333 330 325 325 320 314 310 308 310 311 309 310 311 313 313 313 313 313 314 314 315 316 317 317 318 317 317 316 312 310 307 305 304 308 314 309 309 302 301 301 301 301
333 332 325 324 323 321 314 313 310 311 310 309 311 311 312 313 313 313 313 313 314 316 317 318 318 318 318 316 314 310 308 305 304 302 304 312 311 312 306 302 301 301 301
332 332 327 325 323 323 312 310 313 312 310 310 311 312 312 312 313 313 313 314 315 317 318 318 319 319 318 316 311 308 306 304 302 301 302 302 303 306 305 302 301 301 301
327 326 325 324 323 315 312 314 315 311 310 310 312 312 313 313 313 313 313 314 316 318 318 319 319 319 318 314 309 306 304 301 300 300 300 300 300 307 309 305 304 302 302
324 325 323 321 316 315 316 315 312 311 310 310 311 312 313 313 313 313 314 316 318 319 319 319 319 319 318 312 308 305 302 300 300 299 299 299 300 310 309 306 307 307 304
325 324 317 316 316 316 312 310 311 312 310 310 311 312 312 313 313 314 318 319 320 320 320 319 319 319 316 309 305 303 301 300 299 298 298 298 298 304 309 307 307 306 305
319 318 317 318 316 313 311 309 311 312 310 311 312 313 314 316 319 320 321 321 321 320 320 320 320 318 312 307 304 302 300 299 298 297 297 298 299 305 308 307 307 306 305
321 320 319 316 314 310 310 309 310 312 311 312 315 320 322 321 322 323 322 322 321 320 320 319 318 315 308 306 303 300 299 298 297 297 297 297 298 300 302 303 303 304 304
320 318 317 316 311 310 310 311 314 313 313 318 322 323 324 323 323 323 323 323 322 321 319 319 318 310 308 303 300 298 298 297 297 297 296 297 299 301 302 302 301 300 299
320 321 317 314 316 318 312 311 313 313 319 323 324 325 324 324 324 323 323 323 322 320 319 317 312 308 305 301 299 298 298 297 297 297 296 298 298 296 299 299 299 298 298
320 320 320 318 318 320 314 312 315 314 318 324 325 323 323 323 323 323 323 323 321 319 318 315 309 308 305 302 300 300 298 297 297 297 297 297 296 294 295 296 295 295 295
320 320 324 323 320 319 314 313 316 317 322 324 323 323 323 324 324 324 323 322 320 320 318 310 309 307 304 303 303 302 299 296 296 297 297 297 294 294 295 294 294 294 295
322 322 324 321 321 320 315 313 315 318 317 320 324 323 324 325 325 323 321 321 320 319 312 309 308 306 305 304 303 302 299 296 296 297 296 297 295 294 294 293 293 294 295
321 321 323 323 323 324 319 313 314 317 320 323 325 325 324 324 323 320 320 320 320 316 309 308 307 306 304 304 303 300 299 298 296 295 294 297 294 295 295 294 294 295 296
324 321 322 324 324 326 324 317 313 319 323 325 325 324 324 323 320 319 319 319 316 309 308 308 307 305 304 303 301 298 297 297 293 294 293 293 294 295 294 294 294 293 294
325 324 323 325 326 326 327 323 318 318 321 322 322 323 323 321 318 318 318 315 310 308 309 307 306 305 305 302 299 297 294 293 296 296 296 293 294 294 294 292 292 291 293
327 326 325 325 326 327 326 326 323 322 323 322 323 324 322 318 318 318 316 311 309 308 309 306 305 304 303 305 303 299 293 292 292 294 295 296 295 295 294 293 291 291 292
327 326 326 326 326 326 326 325 324 323 323 322 323 324 322 319 318 317 314 311 309 308 308 306 306 305 303 304 301 296 292 292 295 295 295 295 295 294 293 292 291 291 290

GFSSE_850_thetae_060.txt.gz
Theta_e
342 338 331 335 337 336 337 336 336 335 335 334 328 326 320 312 307 308 309 310 311 316 321 324 326 325 320 317 316 315 316 315 315 312 310 309 309 309 310 312 323 319 316
342 337 331 334 337 336 336 336 336 336 332 327 324 317 310 307 308 309 310 312 317 320 321 322 322 320 316 315 315 314 314 314 314 314 321 318 310 309 309 309 310 312 313
341 338 331 331 336 336 336 336 335 329 326 321 313 308 307 309 310 311 314 317 321 322 321 319 316 315 315 315 314 313 313 312 312 315 321 322 319 309 308 308 309 309 309
340 338 335 328 330 334 333 329 326 325 317 311 308 307 309 311 311 312 317 318 320 319 317 315 315 315 315 314 313 313 312 312 312 320 321 321 320 308 308 307 308 310 314
339 338 333 328 326 325 325 326 324 316 310 307 307 309 311 311 311 315 317 317 317 316 315 315 316 315 314 313 313 313 313 312 317 320 320 321 319 307 307 307 308 307 308
339 338 333 328 326 326 327 324 315 309 307 308 309 311 310 311 314 316 316 315 315 315 315 315 315 314 314 314 313 313 312 311 318 318 319 319 318 305 304 304 305 305 305
339 338 333 328 327 327 322 314 309 307 308 310 311 310 310 314 315 316 315 314 314 315 315 315 315 315 316 315 314 312 309 310 316 317 318 318 314 304 302 302 301 301 302
332 333 335 331 328 326 319 315 314 310 310 310 309 310 312 315 314 314 313 314 314 315 315 316 317 317 317 315 312 310 307 311 315 315 317 317 308 305 302 301 301 301 301
330 334 334 333 328 322 318 316 317 318 311 309 310 313 313 313 313 313 314 315 316 316 317 317 318 317 316 314 310 308 306 306 314 314 316 316 310 310 303 301 300 301 301
334 334 332 332 327 322 320 317 315 317 310 310 312 313 313 313 313 314 314 315 316 317 317 318 318 318 316 312 309 307 305 308 311 312 314 313 312 312 309 301 301 302 302
326 327 329 327 324 323 322 321 313 312 310 312 313 313 313 313 314 316 317 315 316 317 318 318 318 318 316 311 308 305 306 308 309 310 311 302 310 311 310 306 302 302 302
328 324 324 323 324 323 323 318 314 312 312 312 312 313 315 313 319 316 314 315 317 318 318 318 318 318 315 310 307 305 305 303 304 305 305 300 303 311 309 308 307 303 302
326 326 324 324 323 320 316 314 313 311 312 312 312 312 313 318 314 314 315 317 318 318 319 319 319 319 316 309 307 304 303 303 304 303 301 299 299 311 308 309 306 306 305
326 324 323 321 317 314 312 314 314 316 311 312 313 312 313 316 315 318 318 317 318 318 319 319 319 319 315 309 305 304 301 302 302 302 302 297 298 310 309 309 307 305 304
321 319 318 316 312 313 316 319 318 313 311 316 313 313 313 313 313 314 317 319 319 320 319 319 319 318 312 308 306 303 301 300 299 304 308 298 300 310 308 305 304 304 304
319 318 316 316 318 319 321 321 317 319 319 312 312 312 312 313 314 318 320 320 321 320 320 319 319 317 310 308 306 301 300 299 299 301 306 303 300 300 301 302 302 303 302
319 319 319 321 320 321 320 319 319 312 312 317 313 312 314 318 320 321 322 322 321 321 320 320 319 316 309 307 303 301 301 299 298 298 304 306 305 300 299 300 301 301 300
322 322 322 321 321 321 321 318 320 316 312 315 315 319 322 323 322 323 323 323 322 321 320 319 317 311 307 305 304 304 303 300 298 298 300 303 303 300 301 299 297 297 297
322 322 322 320 319 323 317 313 313 314 313 320 324 324 324 324 323 323 323 323 322 320 319 319 316 309 307 306 305 306 305 303 301 300 301 301 298 298 298 299 295 294 294
322 323 323 322 323 320 319 314 312 315 317 323 323 325 325 324 322 322 323 323 322 320 318 317 313 308 307 307 305 306 306 304 303 302 301 300 300 299 299 298 298 298 297
323 324 325 325 325 325 324 317 320 320 321 320 323 324 323 321 322 323 323 323 321 318 318 318 310 308 308 307 307 307 305 303 303 302 301 301 300 299 299 298 298 297 297
325 325 325 327 327 324 324 321 318 317 321 322 323 321 322 323 323 324 323 323 320 316 318 315 309 309 308 308 307 305 308 305 303 302 302 300 301 300 299 299 298 298 297
327 327 326 327 328 326 327 324 321 321 321 320 321 319 323 323 323 324 323 321 319 318 316 310 308 309 309 306 305 304 307 307 304 302 301 300 300 299 299 299 298 296 296
328 328 327 327 328 328 326 326 323 320 320 321 321 321 323 323 324 323 321 320 319 317 312 309 309 308 307 305 304 306 304 302 302 301 300 299 300 299 299 298 296 295 295
329 329 328 327 327 328 327 326 326 323 320 323 323 322 323 324 323 321 319 319 318 316 311 308 309 307 306 305 304 302 301 301 300 299 299 298 298 298 297 297 296 295 295
330 330 327 326 327 327 326 326 326 326 325 324 321 322 323 324 323 321 319 318 316 311 310 308 308 308 306 307 308 306 297 298 298 298 298 298 298 297 297 295 294 294 293

GFSSE_850_thetae_063.txt.gz
Theta_e
344 342 335 341 342 338 337 336 335 334 334 333 332 327 322 313 308 308 308 322 328 326 326 327 324 320 315 314 314 314 314 314 315 317 311 309 309 310 314 319 324 319 315
344 342 333 340 342 340 337 336 335 335 334 333 328 323 313 308 308 309 310 324 326 325 325 324 320 315 315 314 313 313 313 313 318 323 322 318 310 309 309 309 314 318 316
344 340 331 338 340 340 338 337 335 335 335 330 324 315 307 308 309 310 314 320 323 320 321 318 315 315 314 313 312 312 311 316 321 322 322 322 318 310 309 311 318 314 315
343 340 338 339 339 339 337 336 335 335 331 325 316 308 308 310 311 313 317 322 325 320 316 315 315 315 313 313 312 312 313 320 321 322 322 321 319 308 313 308 309 309 314
342 340 337 337 339 337 337 336 336 332 326 317 308 308 310 311 314 317 319 323 326 316 315 315 315 314 313 313 313 312 317 319 320 321 321 320 317 305 305 310 308 306 306
342 339 335 335 337 336 336 337 332 326 317 308 308 310 311 314 317 318 319 324 323 315 315 315 314 314 314 313 311 310 316 318 319 321 320 316 305 303 302 302 302 303 304
339 338 335 331 337 337 336 330 325 316 308 308 311 311 313 316 317 317 318 318 316 315 315 315 315 315 314 312 309 308 314 317 318 320 319 316 304 302 302 301 301 301 301
336 335 335 332 332 330 329 325 320 313 310 312 312 313 314 316 316 315 315 315 315 315 315 316 317 315 313 310 308 306 313 316 317 319 319 316 303 302 301 300 301 301 301
335 331 326 330 329 324 321 320 319 319 319 318 313 314 315 315 315 315 315 315 315 316 317 318 317 315 312 309 307 306 308 315 316 317 318 316 306 304 301 301 301 301 301
332 329 331 325 326 327 324 318 316 319 316 312 314 315 315 315 314 314 315 315 316 317 318 318 318 316 311 309 307 306 311 312 313 315 316 310 310 311 303 301 301 301 301
329 330 330 330 327 327 322 323 320 314 316 313 315 314 313 314 314 317 316 316 317 318 319 319 319 318 311 308 307 307 309 310 310 312 314 304 311 311 309 303 302 301 301
329 328 328 329 325 323 323 321 318 314 314 314 314 314 313 314 316 318 315 316 317 318 318 319 319 315 312 311 309 308 307 308 307 307 307 300 311 312 310 308 305 303 301
328 327 325 323 322 322 322 320 316 317 316 314 314 313 313 320 321 315 315 317 317 318 319 319 316 314 314 310 307 307 307 307 306 306 305 299 301 311 310 307 307 305 304
325 324 322 322 323 322 321 315 316 314 314 313 313 314 316 321 319 315 318 318 318 317 317 316 317 319 315 309 308 307 304 305 305 306 307 299 298 309 310 309 308 307 305
323 323 323 321 321 320 317 317 316 315 315 317 312 313 319 322 323 321 321 319 318 318 317 316 319 319 314 309 307 306 304 304 304 309 309 299 299 310 308 306 308 306 306
322 320 319 319 319 316 313 314 313 315 317 312 313 317 323 323 323 322 321 320 319 318 317 316 316 316 310 309 308 305 304 304 303 306 309 307 299 301 301 300 301 302 302
321 320 319 315 315 318 321 322 321 321 318 320 321 322 323 322 320 322 321 320 319 318 317 316 318 313 310 308 307 306 306 305 304 304 306 309 308 304 302 299 299 298 298
320 320 317 317 318 321 322 323 321 320 320 320 321 323 316 319 316 320 322 321 319 319 319 317 314 313 311 309 308 308 307 306 304 304 305 307 307 302 302 302 300 296 295
321 322 322 321 322 321 321 322 322 321 321 320 321 324 323 317 322 322 323 322 322 321 318 318 315 314 311 310 309 309 309 307 306 304 304 304 303 301 301 300 300 298 298
324 324 323 322 323 323 323 322 321 322 321 320 322 323 324 325 324 323 323 322 322 319 320 318 315 313 312 311 309 308 310 309 307 306 305 304 303 302 302 302 300 300 299
324 323 323 322 322 324 324 322 320 321 321 322 323 325 326 325 325 324 323 322 322 319 317 316 316 314 311 311 311 312 310 309 307 306 305 305 304 303 302 301 301 300 300
324 324 324 323 323 325 325 324 321 319 320 321 322 325 326 325 325 322 322 322 322 319 317 316 315 313 312 311 312 310 312 310 307 306 305 305 304 303 302 301 301 300 299
325 325 326 326 325 325 325 324 322 320 320 322 323 324 324 325 322 323 323 322 321 321 317 317 315 313 313 311 309 309 310 309 308 307 306 304 303 303 302 301 301 300 298
328 326 326 327 326 327 327 325 324 321 320 321 323 324 324 323 320 323 322 321 321 320 317 317 315 313 312 312 309 309 308 308 306 307 306 303 303 302 302 301 301 299 298
330 329 328 327 327 328 328 327 327 324 322 322 323 324 324 323 323 322 322 321 322 318 316 315 313 312 311 311 308 308 310 309 305 303 304 304 302 301 301 300 299 298 297
330 330 330 329 328 328 329 329 329 327 326 322 322 326 325 325 322 322 323 323 321 319 317 314 312 311 310 309 307 307 309 307 302 300 301 301 301 301 300 299 298 297 296

GFSSE_850_thetae_066.txt.gz
Theta_e
343 338 338 337 337 335 333 332 331 332 331 330 330 327 321 312 309 309 316 328 325 323 325 323 319 313 313 313 313 313 316 321 322 319 310 310 311 314 316 314 311 313 314
340 337 339 341 338 335 334 332 332 333 331 331 329 324 314 308 308 321 327 325 325 325 322 318 314 313 312 312 311 313 320 322 323 322 318 312 317 318 319 319 318 322 320
330 339 340 341 340 337 335 333 333 333 331 331 325 316 308 308 311 328 325 323 324 322 318 314 313 313 312 311 311 319 322 322 323 322 321 314 315 316 310 312 321 320 321
323 339 338 340 340 338 336 334 334 333 332 327 320 309 308 310 314 328 323 321 321 318 314 314 313 312 312 311 313 320 321 322 322 321 320 314 307 307 311 307 308 309 311
337 340 338 339 340 339 337 335 334 333 330 323 312 307 309 311 317 327 324 320 318 314 314 314 313 312 312 311 318 320 320 321 321 319 314 307 304 303 303 303 304 305 306
341 339 338 338 340 340 337 335 334 332 326 315 307 309 311 314 320 325 323 317 314 314 314 314 314 313 311 309 317 318 319 321 321 319 307 304 303 302 302 302 302 302 302
339 339 339 339 340 340 337 335 334 327 317 308 309 312 314 318 322 325 322 315 315 315 315 315 314 312 309 308 314 317 319 320 320 319 308 304 303 302 302 302 302 302 301
335 337 336 335 330 338 337 334 327 316 309 309 312 322 320 319 321 323 318 315 315 315 316 315 313 310 308 307 310 315 317 318 320 319 317 304 303 302 301 301 301 301 301
332 332 331 328 330 327 325 325 321 312 309 311 313 318 319 317 318 317 315 315 315 317 318 316 313 310 308 307 307 314 316 317 318 318 316 304 303 302 301 301 301 301 301
333 330 327 325 325 326 326 320 317 316 312 312 316 319 319 316 316 315 315 315 316 318 318 318 315 310 308 307 309 312 313 314 315 316 314 303 305 305 301 301 301 301 300
330 328 325 327 326 325 324 323 319 316 317 317 320 319 317 316 315 315 315 316 317 318 319 319 318 311 309 308 308 309 310 310 311 313 311 302 307 308 303 301 301 300 300
329 328 327 326 325 325 324 323 323 316 313 316 318 317 315 314 314 315 316 317 318 318 319 319 316 313 311 310 309 308 307 308 307 307 306 300 305 309 305 302 301 300 301
329 329 328 326 325 326 326 323 319 313 318 318 316 314 314 314 315 316 316 317 318 318 319 319 317 315 311 310 308 308 307 307 306 306 306 300 302 305 306 306 303 302 302
325 324 325 326 325 323 322 320 315 316 320 316 315 314 315 314 315 316 315 317 318 318 319 319 318 318 312 309 309 308 306 306 306 306 308 300 299 304 310 305 302 302 302
325 324 324 322 322 322 321 317 314 319 317 315 314 315 315 314 317 315 316 317 318 318 319 317 318 318 314 310 310 308 307 306 306 309 309 302 299 303 304 303 303 303 304
323 322 321 322 322 321 319 318 316 320 315 316 317 317 314 316 318 318 320 319 319 319 318 317 318 318 313 310 309 307 307 306 305 309 308 307 302 300 300 299 299 299 300
322 322 321 321 320 319 318 316 316 317 315 316 321 317 316 320 321 321 321 320 319 319 318 316 316 314 313 309 309 309 308 308 307 305 307 308 308 308 303 301 300 298 297
322 320 320 320 316 315 315 316 316 315 317 321 319 315 314 320 322 322 321 321 320 319 318 317 317 318 312 309 309 308 308 308 307 307 307 308 309 306 301 302 301 300 298
321 320 316 315 314 316 319 316 322 319 320 319 317 314 314 318 320 320 322 322 320 319 319 318 318 314 312 310 309 309 309 308 307 306 305 306 306 302 302 301 301 301 300
317 314 315 317 321 322 321 323 322 321 316 315 317 320 320 316 316 319 323 323 322 321 320 319 316 316 313 312 311 309 309 310 309 307 306 305 304 304 303 302 302 301 300
321 320 320 321 322 322 319 321 321 321 318 318 319 321 323 323 321 322 321 322 323 322 320 320 318 316 315 312 311 311 312 311 310 308 306 306 305 304 303 303 302 301 300
324 324 323 323 322 322 323 321 321 321 320 320 321 322 326 324 324 324 324 325 323 321 319 319 318 318 317 312 311 312 312 311 310 308 308 306 305 305 304 303 301 301 301
324 324 323 322 322 322 324 322 321 321 320 321 321 323 325 325 323 324 324 324 323 322 321 318 318 318 317 313 313 312 311 311 309 308 307 307 306 305 303 303 302 301 301
324 324 324 323 322 324 325 325 324 321 320 321 321 322 323 324 324 323 324 323 323 323 321 318 318 317 316 313 313 311 310 310 310 309 308 306 304 304 303 301 301 302 301
325 325 325 326 325 325 325 325 325 322 321 320 321 322 324 326 325 323 323 323 323 322 322 321 316 316 315 313 312 312 309 309 310 308 306 307 305 303 302 301 301 301 300
328 327 326 326 326 327 327 327 326 326 323 321 321 322 324 325 324 322 324 322 321 319 322 321 316 314 314 313 312 311 309 309 309 304 303 303 302 302 301 301 300 300 299

GFSSE_850_thetae_069.txt.gz
Theta_e
338 338 338 337 332 328 327 329 330 328 326 328 328 324 317 310 310 310 313 315 318 321 319 316 313 312 312 312 316 320 321 321 320 311 317 322 321 313 311 311 318 321 319
333 339 340 337 333 329 327 329 331 328 327 329 326 319 310 309 310 321 317 322 324 322 316 312 312 311 311 320 322 323 324 323 322 319 310 316 320 316 311 313 314 322 320
338 336 335 339 336 329 329 330 331 328 329 328 322 311 308 310 319 317 321 323 322 316 312 312 311 311 315 321 322 322 323 323 322 319 309 310 311 310 308 312 310 313 314
327 330 327 325 332 331 330 331 331 329 330 325 314 308 311 318 317 319 322 321 316 313 313 312 311 311 315 321 321 321 322 323 321 319 306 305 305 306 306 306 307 309 314
326 324 324 327 330 334 332 332 333 330 330 321 309 309 324 327 319 321 321 317 313 313 312 311 311 310 317 320 320 320 321 321 319 309 305 304 304 303 303 303 303 304 313
339 336 332 334 339 336 332 332 332 329 326 314 308 311 324 327 320 320 317 313 314 313 312 311 310 310 318 319 318 321 321 320 316 305 305 304 303 303 302 302 302 303 305
338 339 338 337 339 338 334 333 331 329 321 309 309 314 325 327 319 317 314 314 314 314 312 310 309 309 317 318 320 321 320 320 319 314 304 303 303 302 302 302 302 304 304
336 334 334 335 333 331 322 334 330 326 314 308 311 316 325 324 317 314 314 314 316 314 312 310 309 308 313 317 318 318 320 320 318 312 305 304 303 303 302 302 302 302 303
334 333 334 334 332 328 321 332 323 318 313 311 313 319 325 323 317 314 314 315 317 316 313 310 309 308 309 315 316 317 318 317 316 315 307 304 303 302 302 301 301 301 302
333 333 332 328 328 326 326 323 321 318 319 323 323 321 322 323 317 315 315 316 318 318 316 311 309 308 308 312 315 314 314 316 315 314 309 304 304 302 302 301 300 300 302
332 329 329 330 326 325 325 323 320 314 314 318 324 323 322 321 317 315 315 317 318 319 319 313 309 308 308 310 311 312 310 310 311 310 307 303 304 303 302 301 300 299 300
329 330 327 327 326 325 323 322 322 314 317 320 320 319 321 317 315 315 316 318 319 319 319 316 312 311 310 309 309 308 309 308 308 307 306 302 303 303 302 301 301 300 299
327 326 326 325 325 325 323 322 321 315 316 318 319 319 316 315 315 316 316 317 318 319 319 318 315 313 310 309 309 307 308 307 307 306 306 302 303 303 303 302 301 300 299
327 327 327 325 325 324 323 322 318 320 317 321 318 315 314 315 315 315 316 317 318 318 319 319 319 317 311 309 309 307 307 306 306 307 308 301 301 302 303 303 302 301 299
326 324 324 326 325 326 324 320 314 313 319 318 315 314 314 314 314 314 315 317 318 318 318 319 319 319 313 309 310 307 305 304 306 308 308 306 301 302 309 305 301 300 300
325 324 325 325 324 324 324 315 313 317 318 316 315 315 315 314 314 314 314 316 318 318 318 319 319 319 316 310 310 308 308 306 307 307 308 308 306 303 302 300 301 298 298
323 323 322 323 323 323 321 314 315 320 318 316 316 318 317 315 314 313 314 316 318 319 319 319 317 318 317 312 309 309 309 309 305 306 306 307 308 308 307 303 302 301 300
323 322 322 322 322 321 320 316 318 318 319 317 318 316 314 314 314 317 317 318 319 319 319 318 316 317 315 313 309 309 309 310 307 306 308 307 307 308 307 302 303 302 301
323 322 322 321 320 319 318 314 318 316 315 319 318 315 315 314 315 319 318 319 320 320 319 318 317 317 316 312 309 309 308 309 310 309 307 307 306 307 306 304 302 301 302
322 321 321 319 316 314 314 316 316 319 316 315 313 313 314 313 313 317 318 320 320 321 320 319 319 317 316 312 310 310 310 309 310 311 310 306 305 304 304 304 304 303 302
320 319 318 316 314 315 314 315 313 315 317 317 315 314 314 315 313 314 316 318 322 322 321 320 320 318 315 313 312 311 309 309 311 311 310 308 308 307 304 304 304 303 302
317 317 319 317 318 317 314 319 322 321 320 318 317 317 314 314 319 317 315 318 321 322 322 322 320 318 317 316 314 312 311 311 311 311 310 308 307 306 305 304 304 303 302
316 317 319 320 321 321 321 323 322 320 319 317 315 317 318 320 323 323 323 322 323 323 322 321 320 318 317 316 314 316 311 312 312 311 310 308 307 306 306 305 304 303 302
322 321 321 321 321 322 321 319 317 319 320 319 315 318 321 322 323 324 323 322 322 320 322 322 320 318 316 316 314 312 312 311 309 309 309 308 307 306 305 304 304 302 301
323 323 323 323 323 321 321 323 319 319 320 320 320 320 321 323 324 323 324 323 322 322 323 322 322 320 317 316 314 313 312 311 309 310 310 310 307 305 305 304 302 301 301
324 324 323 323 321 320 319 324 325 323 322 321 321 321 322 322 322 323 323 323 321 319 321 322 321 320 319 317 314 313 313 313 310 309 308 309 308 306 302 302 301 301 301

GFSSE_850_thetae_072.txt.gz
Theta_e
340 338 334 330 333 324 326 328 327 326 327 326 325 320 315 313 312 312 311 312 321 328 320 313 313 312 313 316 319 318 317 313 315 321 324 324 320 318 315 317 320 323 321
341 338 337 333 332 325 327 327 326 325 326 327 323 317 312 311 311 310 312 321 322 317 313 312 311 314 319 324 325 323 318 316 310 310 313 318 319 316 316 320 319 323 323
340 340 337 336 334 326 328 328 326 325 327 327 321 312 310 310 312 316 322 321 318 313 311 311 315 320 321 324 324 322 318 317 310 308 309 310 312 316 312 310 318 322 322
336 337 338 336 334 332 328 330 327 326 329 325 314 309 310 314 314 320 323 319 312 312 311 311 318 320 320 321 322 321 320 319 312 305 305 305 306 309 308 308 319 322 321
332 333 335 335 333 330 326 330 326 327 329 319 309 311 317 315 318 321 319 312 312 311 310 312 319 320 320 321 321 320 318 309 307 305 305 305 305 304 304 307 314 318 318
325 331 329 329 331 325 328 328 328 327 327 311 324 322 316 318 320 319 313 313 312 311 310 313 320 320 320 320 320 320 320 314 305 305 305 304 304 304 303 305 304 304 307
332 330 327 327 326 328 327 332 330 325 319 310 312 317 318 320 319 313 313 313 311 310 309 315 319 318 319 319 320 319 319 318 307 305 304 304 304 303 306 306 304 305 303
334 333 332 332 330 328 327 327 331 323 314 323 320 323 319 319 315 313 314 312 311 310 309 313 318 317 318 320 320 319 318 317 313 305 304 304 303 304 304 305 303 304 305
336 335 333 333 332 328 325 329 330 322 321 321 327 327 321 317 314 314 315 313 311 309 308 309 317 317 316 318 318 319 317 315 313 308 304 303 303 303 303 303 303 302 302
332 334 332 332 330 330 325 325 324 320 325 326 327 328 321 315 314 315 316 315 312 310 309 308 311 316 316 315 316 316 315 314 312 308 304 304 303 302 302 301 301 301 301
329 329 328 328 328 327 326 324 322 319 320 325 328 327 320 315 315 316 317 317 316 311 309 308 308 312 315 315 314 313 311 311 309 307 304 304 304 303 302 301 301 301 302
329 328 328 326 324 325 325 322 322 319 318 321 324 325 321 315 315 317 318 318 318 315 310 309 308 310 312 312 311 311 309 308 307 306 306 303 304 303 303 302 302 301 300
326 327 327 326 324 323 322 321 322 320 318 320 320 319 318 315 315 317 318 319 319 318 315 312 311 310 310 309 308 309 308 307 307 307 306 304 304 304 303 302 302 301 300
326 325 325 325 324 322 321 321 322 320 317 318 320 318 315 315 315 317 318 318 319 319 318 318 316 310 309 309 308 308 308 307 307 308 308 305 303 304 304 303 302 301 299
325 325 324 324 324 323 321 321 321 319 322 319 316 317 315 315 316 316 317 318 318 319 319 319 319 317 309 309 307 307 308 307 308 309 309 307 305 304 304 303 302 301 299
325 325 324 325 324 322 322 319 315 318 315 316 319 317 315 315 315 316 316 317 318 319 319 319 319 319 313 309 309 307 309 308 309 308 309 308 308 307 306 302 303 302 300
325 324 323 324 325 324 321 318 318 321 317 319 316 315 315 315 314 314 314 316 318 318 319 319 319 319 317 311 310 309 310 309 310 308 308 308 308 308 308 304 303 303 303
324 322 323 323 324 323 321 317 316 320 319 316 314 316 317 316 314 314 313 314 317 319 320 319 319 319 319 317 310 310 310 310 310 308 309 309 308 307 308 307 304 304 303
323 322 322 323 323 322 318 314 319 319 318 315 315 316 317 317 315 314 313 315 318 319 319 320 319 319 319 317 313 310 309 310 310 309 309 309 308 307 307 307 306 304 304
323 322 322 322 322 320 315 317 320 318 316 316 316 320 318 317 314 314 314 314 317 318 320 320 320 319 319 318 314 312 311 310 309 309 310 310 309 307 307 306 305 305 304
322 322 322 321 320 319 315 318 318 317 318 319 319 318 315 315 314 313 314 315 318 318 320 321 320 319 319 316 313 311 310 310 309 309 310 310 310 308 308 308 307 305 304
322 322 321 321 319 319 316 315 316 316 317 317 315 313 313 313 313 313 313 314 313 317 320 321 321 320 319 316 313 311 310 309 309 309 311 311 310 307 307 306 305 305 305
320 321 320 317 316 316 314 316 316 318 317 316 315 315 313 313 315 315 315 313 312 315 320 322 322 321 320 317 314 312 311 311 311 311 310 310 310 308 307 306 305 305 305
319 319 316 315 315 314 314 313 313 314 315 317 317 316 314 315 314 316 319 320 320 320 321 322 323 322 320 318 316 314 313 312 311 310 310 309 309 308 307 306 305 305 304
319 318 317 316 316 314 315 315 319 320 320 319 318 317 314 314 317 319 320 323 323 323 322 322 321 322 321 319 318 317 315 312 312 310 310 310 309 309 308 307 306 305 304
317 316 318 319 320 319 318 318 321 322 320 319 316 316 316 314 316 320 322 322 324 324 323 322 321 321 322 320 319 317 316 315 312 312 311 311 309 309 309 306 304 303 303

GFSSE_850_thetae_075.txt.gz
Theta_e
340 338 333 330 329 325 324 325 327 328 326 326 331 335 334 329 323 315 314 328 330 330 330 318 313 312 312 312 311 311 314 320 325 324 323 325 326 327 323 321 323 326 326
344 340 335 325 323 323 325 327 329 331 324 322 322 321 322 320 315 310 315 327 331 330 320 314 313 314 316 315 314 313 310 310 313 322 321 321 325 326 321 324 323 324 324
343 339 330 326 325 325 326 330 331 329 324 322 320 317 315 313 311 311 320 327 324 316 313 312 319 322 320 322 315 314 309 308 309 310 313 317 320 319 322 323 322 322 322
338 339 335 330 327 327 328 328 327 327 324 323 320 315 312 312 312 317 322 320 315 312 312 314 316 320 320 320 319 318 313 305 306 306 307 309 316 319 322 322 321 320 320
335 336 336 328 329 328 329 328 327 326 325 321 318 312 313 312 319 320 318 313 311 312 316 316 318 319 321 320 318 308 306 305 305 305 305 305 308 317 320 320 317 318 316
335 335 333 331 326 330 329 328 328 327 328 323 314 311 315 317 320 317 312 311 311 313 317 316 319 319 320 319 319 316 310 305 305 305 304 305 308 315 311 309 310 307 308
330 331 333 334 332 332 330 329 328 328 327 327 312 316 318 321 317 312 312 311 311 315 319 319 319 319 320 320 318 317 308 306 305 305 305 305 310 312 309 305 305 306 305
333 332 331 329 332 329 329 327 327 331 326 330 320 320 323 320 313 312 311 310 310 317 319 318 318 319 320 319 318 316 314 308 305 305 304 304 305 308 305 306 306 304 303
331 331 332 330 327 327 325 327 327 327 326 326 326 323 321 316 313 312 311 310 313 318 319 317 317 319 319 319 318 315 313 310 305 304 304 304 304 305 304 304 304 303 302
332 334 331 330 329 330 327 330 326 329 328 324 324 323 317 313 313 312 310 309 310 318 317 317 316 317 317 317 316 315 312 310 306 304 305 305 304 303 304 303 303 303 303
329 330 330 330 330 329 327 326 327 327 326 323 322 321 315 314 314 312 310 309 308 312 316 316 316 316 316 315 313 312 310 308 307 304 305 305 304 304 303 303 303 303 302
328 328 328 328 328 328 324 323 324 325 322 324 319 319 314 314 315 313 311 309 308 308 309 314 314 315 315 313 312 310 308 308 307 306 304 305 305 305 304 303 303 303 302
327 328 326 325 325 325 324 323 322 321 324 322 321 316 314 315 316 316 315 312 310 309 309 309 311 312 312 310 309 309 308 307 307 308 304 304 305 305 304 304 304 303 302
325 327 327 325 324 324 323 322 322 322 321 321 322 315 315 316 317 318 318 318 316 313 311 310 309 309 310 308 308 308 307 307 308 308 307 305 305 306 305 304 304 303 303
325 325 325 324 322 321 322 322 321 320 320 322 321 316 315 316 317 318 319 319 318 318 318 316 311 310 310 310 309 308 308 308 308 309 308 307 307 305 306 306 306 305 303
325 324 324 324 322 322 322 321 318 318 321 320 320 316 315 315 316 318 318 319 319 319 319 319 319 314 309 310 309 308 309 309 309 309 309 309 308 307 307 307 305 303 302
325 325 324 324 322 321 321 321 319 317 319 320 317 314 316 315 316 317 317 318 318 318 319 319 319 319 312 309 309 309 310 310 310 308 309 309 309 308 308 308 305 303 303
324 324 324 324 323 321 321 319 318 318 317 316 315 315 317 315 316 316 316 317 318 318 319 319 319 319 317 314 310 310 310 311 311 309 308 310 310 309 308 308 307 305 305
324 323 323 324 322 321 320 318 320 321 319 316 316 319 315 315 315 314 315 316 317 318 319 320 319 318 319 318 316 311 310 310 310 311 309 309 310 309 307 307 307 306 305
323 323 322 322 321 320 316 318 322 322 318 320 318 315 316 316 316 315 314 315 315 318 319 319 320 319 319 318 317 313 311 310 310 310 310 310 310 310 308 308 307 306 306
323 322 322 323 322 321 319 318 321 321 319 317 315 316 317 318 316 315 317 317 315 315 317 319 320 319 319 318 315 312 310 309 309 309 309 309 311 311 309 308 308 307 306
322 322 321 322 323 322 319 317 320 321 320 318 316 317 317 315 316 317 317 315 315 314 315 318 320 320 319 318 316 313 311 310 310 310 309 309 309 309 310 309 308 307 306
322 321 321 322 322 322 319 318 321 320 319 320 318 318 318 316 317 317 316 314 314 314 314 315 319 321 321 319 318 315 311 312 312 311 310 309 309 309 309 309 308 307 306
321 322 321 322 321 321 317 317 319 318 319 318 317 316 315 314 315 315 314 313 315 315 315 315 317 321 321 321 319 317 314 314 314 313 313 312 309 309 308 309 307 307 306
320 321 321 321 321 320 317 316 316 317 316 315 315 315 314 315 313 313 313 313 316 320 320 319 320 321 322 322 321 320 317 316 314 313 312 312 312 311 311 309 309 307 306
319 320 318 318 318 319 317 316 317 316 315 315 314 314 314 317 315 314 314 313 316 320 322 322 322 322 322 322 322 320 319 317 317 315 313 311 312 311 310 310 309 309 307

GFSSE_850_thetae_078.txt.gz
Theta_e
337 336 332 330 328 329 328 327 329 334 331 335 335 335 334 330 323 316 317 322 328 327 327 329 323 314 317 322 314 314 319 323 324 324 326 326 325 322 318 318 324 326 327
341 341 332 327 327 328 330 332 332 330 330 335 334 334 334 328 323 317 323 328 330 328 327 322 312 311 312 311 311 313 314 322 325 325 325 325 326 324 324 323 322 323 323
340 342 337 332 330 329 332 331 331 331 331 333 335 335 332 328 318 322 328 329 329 328 320 315 313 314 312 312 310 310 311 312 315 316 317 321 324 324 322 320 321 319 320
341 341 338 329 332 333 332 331 330 331 330 335 334 333 328 321 315 327 331 330 329 323 319 322 319 317 315 315 309 306 307 307 308 309 313 323 321 322 321 320 319 320 318
338 339 332 326 326 329 328 330 330 331 333 331 327 323 319 314 315 327 327 322 318 317 329 326 323 318 317 311 308 305 305 305 306 307 310 318 322 321 318 317 315 315 313
335 338 334 329 326 326 326 325 330 331 325 321 319 317 314 312 317 325 320 317 314 314 314 318 319 318 315 308 306 305 305 305 305 305 306 311 313 315 313 310 310 310 312
332 333 336 331 330 325 326 324 324 324 328 328 324 317 313 313 319 317 316 323 318 315 317 318 319 318 317 315 307 306 305 305 305 305 307 310 313 310 309 307 307 306 307
330 331 332 334 332 328 328 329 328 329 328 328 326 323 315 317 316 314 314 322 313 316 317 318 319 319 318 314 312 308 305 305 305 305 306 309 312 311 308 305 303 304 305
329 330 331 331 331 329 330 329 329 328 327 328 328 318 320 319 314 312 312 312 316 317 317 318 319 319 317 315 313 310 306 305 305 305 306 308 310 309 305 304 303 303 303
329 330 330 330 332 330 327 326 326 327 328 328 327 318 320 315 313 312 311 314 317 317 317 318 319 319 317 315 313 310 307 304 305 305 305 305 307 306 304 304 304 303 303
329 331 331 329 327 327 327 328 326 328 328 329 323 319 319 313 312 311 312 316 318 317 316 317 317 317 317 314 312 309 307 305 305 306 306 304 306 305 304 305 304 304 304
328 329 330 329 327 327 329 326 326 327 328 324 323 322 314 312 311 310 315 317 317 316 316 315 315 315 314 312 310 308 307 307 305 306 306 305 304 304 305 305 304 303 303
327 328 328 329 328 329 328 324 329 328 327 322 320 318 313 312 311 309 309 314 316 315 315 315 315 314 313 311 309 308 307 308 307 305 305 306 305 305 304 304 304 303 303
327 327 327 326 327 325 324 326 327 323 322 320 319 317 313 312 311 309 307 307 308 311 312 313 313 312 310 309 308 308 308 308 308 306 305 305 305 306 305 305 304 303 303
325 325 326 325 324 323 323 325 325 326 322 321 319 317 314 314 312 309 308 307 307 308 309 310 310 310 310 309 309 308 309 309 309 309 308 308 307 308 307 306 306 304 304
325 324 325 324 323 322 323 323 323 323 322 319 318 315 316 317 317 316 311 308 308 309 310 311 310 310 310 310 309 308 309 309 309 309 310 309 308 308 308 308 307 306 305
325 325 325 324 322 322 322 322 322 323 321 318 319 315 316 317 318 318 318 318 316 316 317 317 314 310 310 310 309 309 309 309 310 309 309 309 309 309 308 308 307 305 305
324 324 324 324 321 320 321 321 321 321 320 320 319 315 316 315 315 316 317 318 318 318 319 319 318 318 313 310 310 309 309 310 310 310 308 309 310 310 308 308 309 307 305
324 324 324 323 322 320 319 320 320 321 322 319 318 316 315 315 317 317 318 318 318 318 318 318 318 318 317 315 311 310 309 309 309 310 309 308 309 310 309 308 309 307 306
323 323 323 323 322 320 320 319 319 321 322 318 317 314 315 315 316 316 317 317 317 318 318 319 319 318 318 317 317 315 313 310 310 310 310 309 309 309 309 309 308 307 306
323 321 322 323 322 320 320 320 319 318 319 318 316 315 318 316 315 316 316 316 316 317 318 319 319 319 319 318 317 317 315 313 314 314 311 310 309 309 310 310 308 308 307
322 321 322 322 322 321 320 320 322 320 318 317 316 316 320 315 315 315 315 315 316 317 317 318 319 319 319 318 318 318 316 315 316 315 312 311 310 309 309 309 309 307 307
322 322 322 322 322 321 320 319 319 320 320 317 318 319 318 317 317 316 315 317 318 318 317 317 316 318 319 319 319 318 315 316 318 316 314 315 312 309 309 308 309 308 307
321 321 321 322 322 322 320 317 318 319 320 319 318 315 314 316 316 316 316 318 319 319 316 315 315 315 318 320 319 319 318 319 317 315 316 316 315 314 311 308 309 309 308
319 321 321 322 322 322 322 320 318 320 319 317 317 316 315 317 316 316 315 316 316 317 316 317 317 316 316 318 321 321 320 319 319 315 313 316 315 315 311 311 307 309 308
318 321 321 321 321 321 321 321 318 317 318 318 315 317 317 317 315 314 314 315 315 316 316 316 320 321 320 320 321 321 321 319 319 319 317 315 316 314 312 312 310 310 310

GFSSE_850_thetae_081.txt.gz
Theta_e
336 336 334 334 332 331 333 334 335 335 335 334 331 329 329 327 322 319 313 321 329 330 333 330 328 328 329 329 327 326 326 327 326 326 323 324 325 326 326 327 327 327 328
335 334 333 331 331 332 330 329 332 333 335 335 333 330 325 330 319 315 315 328 331 334 331 327 324 324 328 318 321 324 325 324 326 325 324 323 322 320 324 325 326 326 326
338 338 334 332 330 330 329 328 329 334 336 336 333 331 328 326 319 316 318 326 330 327 328 320 323 328 323 317 315 317 320 323 323 324 326 325 324 323 322 321 319 320 316
339 339 340 332 327 328 329 331 332 335 335 335 334 332 329 325 320 321 322 329 328 328 325 319 322 312 311 311 309 309 311 316 315 322 325 325 323 321 320 318 315 316 312
337 341 339 337 328 329 329 331 331 333 333 333 332 330 329 323 320 325 324 329 329 327 323 321 313 311 309 307 307 308 308 311 314 319 322 320 322 321 316 315 315 312 315
332 340 338 336 330 331 330 329 330 328 323 334 331 330 327 321 321 328 328 330 327 326 327 320 315 311 308 306 306 306 307 308 312 320 319 317 318 316 314 314 311 310 310
328 337 336 332 327 330 329 328 325 324 328 334 331 327 324 319 321 329 330 328 326 325 326 321 312 307 306 306 305 305 305 306 307 312 317 317 316 316 315 314 310 309 307
325 335 336 331 326 329 328 327 326 329 328 327 326 326 322 321 324 326 325 322 317 316 322 318 316 314 307 306 305 305 305 306 307 313 317 317 315 316 310 310 307 306 305
329 332 332 331 330 326 326 326 325 324 324 327 326 323 325 325 325 322 319 317 314 316 318 318 317 312 312 308 305 305 305 305 307 314 317 316 311 309 307 305 305 305 304
329 330 331 331 330 329 330 329 326 329 326 326 329 324 324 324 323 319 317 314 316 317 319 319 317 315 313 310 306 305 305 305 307 308 316 315 311 311 306 305 304 304 304
328 330 329 331 331 329 329 330 328 328 328 330 330 327 323 322 320 316 313 316 316 317 319 319 318 315 313 310 307 305 305 306 306 312 314 311 309 308 306 305 304 305 304
328 328 330 331 330 330 329 329 328 327 328 328 330 325 320 317 315 314 314 316 317 317 318 319 318 315 312 309 307 306 306 306 306 308 310 307 306 306 305 305 305 305 304
327 328 329 329 329 327 328 327 327 327 327 329 326 322 318 315 313 313 315 313 317 317 319 318 317 314 311 309 308 308 308 305 306 307 306 306 306 306 305 305 305 305 304
326 327 328 329 328 327 326 328 327 326 328 329 323 318 317 313 312 312 315 315 316 315 315 315 314 313 310 309 308 308 308 307 306 306 306 306 306 306 306 306 305 305 305
325 326 326 327 327 328 327 325 327 327 326 323 319 319 314 311 311 314 313 315 316 315 314 314 313 311 309 309 308 308 308 308 307 306 306 306 308 308 308 306 306 306 305
325 325 325 326 325 324 324 326 325 324 324 320 321 315 312 310 309 309 311 310 314 313 312 312 311 310 309 309 308 308 308 309 309 308 309 308 308 309 309 309 308 307 306
323 324 324 325 325 323 322 324 324 322 320 319 317 313 311 309 308 308 309 308 308 310 310 309 309 309 309 308 308 308 308 309 309 309 309 309 309 308 308 309 309 308 306
324 324 324 325 323 322 322 324 322 322 319 317 314 314 312 313 316 310 316 316 310 313 313 312 311 309 309 309 308 308 309 309 310 309 308 309 309 309 308 308 308 308 306
323 323 323 323 322 322 323 323 322 321 320 316 314 315 316 316 318 317 318 312 314 318 318 318 317 312 310 309 309 308 309 309 309 310 309 307 308 309 309 308 308 308 307
323 322 323 323 322 321 322 322 322 320 317 316 316 315 316 318 318 317 315 317 318 318 318 318 318 315 313 315 315 311 310 309 309 309 309 309 308 309 309 309 308 308 307
320 322 323 322 322 321 320 321 322 320 316 320 316 315 316 316 316 317 317 317 318 318 318 318 317 317 315 317 317 316 315 313 312 310 310 310 309 309 309 309 308 308 307
322 320 322 323 323 322 320 320 321 322 318 321 318 316 316 315 316 317 317 317 317 317 317 318 318 317 316 317 317 317 315 316 316 315 315 313 311 309 309 310 308 308 307
321 320 322 322 322 322 320 320 320 321 320 319 315 315 315 317 316 315 316 316 315 315 316 318 318 318 319 319 318 318 317 318 318 318 317 316 315 313 313 312 309 311 307
322 321 322 322 322 322 321 320 321 320 320 318 316 315 314 315 318 315 315 315 314 315 317 317 318 318 318 318 319 319 319 319 318 318 318 318 317 316 315 314 312 309 308
321 322 322 322 322 321 321 321 320 320 318 318 317 315 315 316 318 315 316 316 315 317 318 318 319 318 318 318 318 318 319 319 319 318 318 319 318 317 315 315 314 312 308
322 321 321 321 322 322 322 321 320 320 319 317 316 315 316 319 317 317 316 316 316 317 316 316 318 318 319 320 319 319 319 319 320 319 318 318 319 317 316 314 314 313 312

GFSSE_850_thetae_084.txt.gz
Theta_e
343 343 336 335 335 334 334 335 337 337 333 330 328 327 326 325 320 319 315 317 322 328 330 329 329 328 329 329 329 329 326 328 329 329 328 329 329 328 329 330 330 330 330
342 344 335 335 334 334 334 335 336 336 334 330 328 328 327 322 319 317 319 323 326 330 329 328 328 329 328 326 326 326 326 325 323 326 327 328 328 326 326 325 326 328 328
339 340 337 334 334 333 332 333 336 336 334 332 329 329 325 321 319 319 321 328 329 329 330 327 326 326 319 321 325 326 326 325 326 326 326 327 326 325 326 325 325 325 325
339 339 337 334 333 331 331 331 333 336 335 334 330 329 324 320 325 318 327 330 331 331 328 327 326 322 316 317 322 324 324 326 327 327 327 325 325 322 321 320 319 315 316
337 338 339 334 333 331 329 330 331 334 335 334 331 328 323 319 318 319 324 331 328 329 326 327 322 316 311 312 315 321 320 324 324 324 324 323 321 320 315 314 314 315 317
333 333 337 337 339 329 330 329 332 334 335 334 331 331 322 319 320 323 324 330 328 326 323 318 311 310 310 309 310 313 315 318 322 322 322 320 320 315 313 311 309 309 310
329 328 331 335 337 333 331 328 328 327 331 325 326 328 324 321 322 319 328 330 327 322 313 312 312 307 307 307 307 309 312 320 321 320 320 320 318 312 310 310 307 306 307
324 324 333 333 334 333 333 331 331 331 327 325 324 329 327 323 322 326 330 328 326 326 315 311 307 306 306 306 306 308 310 318 319 319 320 318 315 312 311 309 306 305 304
324 324 330 335 332 329 331 330 328 327 328 327 328 326 330 327 327 330 330 328 327 326 315 310 309 306 306 305 305 306 309 319 319 319 318 318 312 315 310 307 307 307 307
327 331 333 333 331 329 331 330 327 326 328 329 328 328 330 327 329 330 328 326 319 321 315 314 310 308 306 305 305 306 307 317 319 318 318 315 309 310 309 307 306 306 305
328 329 332 333 330 329 328 328 327 326 326 325 326 327 327 324 327 328 326 318 316 318 317 314 313 310 306 305 305 306 315 318 319 318 317 313 310 309 307 306 305 305 305
327 330 329 332 331 330 329 328 328 329 325 328 327 327 327 324 327 327 321 316 317 318 317 316 314 310 309 307 306 310 317 318 319 318 316 312 312 309 306 305 305 304 304
326 327 329 330 329 331 331 329 328 329 328 328 327 327 326 324 325 324 318 318 318 319 318 317 314 314 316 315 313 316 317 317 318 318 313 309 308 308 307 305 305 305 305
326 327 328 328 329 328 328 329 329 329 328 327 328 329 324 323 324 322 322 318 318 320 319 318 317 318 316 315 315 315 316 317 317 317 313 308 308 307 306 305 305 305 305
325 326 327 327 328 328 327 327 327 327 327 327 327 326 323 318 318 316 317 318 318 320 320 320 319 317 311 314 313 315 315 316 317 316 315 307 309 308 307 306 306 306 305
325 324 326 326 326 326 327 327 326 324 326 327 325 322 319 316 314 315 317 317 317 317 321 320 316 313 313 314 314 311 315 315 316 317 316 308 308 309 308 308 307 306 305
324 324 325 325 326 325 324 324 326 327 325 326 321 317 315 313 313 314 316 316 315 314 314 314 313 312 315 313 313 312 315 315 316 316 316 316 311 309 309 309 308 307 306
325 325 324 324 324 323 323 324 324 322 323 318 316 315 314 313 312 316 315 315 313 312 312 311 309 315 314 313 313 313 314 315 315 315 316 316 316 315 309 309 309 308 307
324 323 324 324 323 322 322 324 323 321 318 317 314 313 313 312 313 311 309 311 312 310 310 309 311 313 312 313 313 313 313 314 313 314 315 314 315 316 316 313 308 308 307
323 323 324 324 322 322 323 323 322 319 316 313 313 311 309 308 308 314 316 317 317 318 312 311 311 311 310 311 310 310 311 312 313 313 311 313 314 314 315 316 312 310 308
322 323 324 323 322 321 322 322 321 318 314 314 313 311 312 316 309 314 317 317 317 317 316 317 318 316 312 311 311 311 311 311 311 310 310 312 314 313 313 314 313 314 313
322 322 323 323 323 321 321 322 321 320 315 315 314 314 315 311 310 316 316 317 317 318 319 319 318 318 317 315 315 317 317 315 314 315 312 312 312 311 310 310 309 308 311
323 322 322 323 322 322 321 321 322 320 316 315 314 314 315 315 311 316 316 317 317 319 319 318 318 319 318 316 316 319 321 321 320 316 314 314 314 314 314 312 311 311 312
323 321 321 323 322 322 321 321 321 321 316 318 316 314 316 316 316 316 316 317 316 317 318 317 317 318 319 319 317 317 319 320 320 321 318 317 317 317 317 317 313 314 313
324 321 322 322 322 322 321 321 321 320 317 318 319 316 316 316 317 316 316 316 316 316 316 316 316 317 318 320 320 319 318 318 318 319 321 320 319 318 319 318 315 313 315
324 322 321 322 321 322 322 321 321 321 319 319 320 317 315 315 317 318 318 315 315 315 315 315 317 318 319 320 320 321 320 320 320 320 320 320 320 319 318 316 317 315 314

GFSSE_850_thetae_087.txt.gz
Theta_e
344 345 342 336 335 335 336 338 338 337 332 329 327 326 325 326 324 322 320 318 319 321 321 323 326 328 328 325 326 329 327 330 331 331 330 331 331 331 331 332 331 331 331
339 345 343 337 336 335 335 336 338 337 333 329 328 327 326 325 322 320 320 322 324 328 329 329 329 329 328 327 326 325 328 330 330 328 329 330 329 330 330 329 329 329 329
333 344 343 338 336 335 334 335 337 337 334 330 328 327 327 325 320 318 324 327 329 331 328 324 325 327 327 325 325 325 323 324 325 326 328 327 326 327 325 325 328 328 327
330 339 345 339 335 334 334 337 336 337 336 332 328 328 328 323 319 318 325 330 331 328 326 323 320 322 323 325 326 325 325 326 325 326 325 325 324 325 324 324 325 324 322
331 337 341 342 335 334 332 331 333 336 337 335 329 329 329 321 319 326 330 331 330 327 324 316 316 316 320 324 325 325 327 326 325 325 324 324 323 323 320 318 315 315 313
338 335 338 337 336 334 333 331 332 333 337 335 331 331 328 325 325 327 330 331 331 327 322 313 314 315 317 319 323 326 323 325 326 325 322 322 321 320 316 312 311 310 309
326 328 331 333 336 338 338 333 332 329 326 327 326 331 328 328 328 329 331 331 329 330 324 317 311 312 311 315 319 322 322 322 323 322 321 321 319 316 313 308 306 306 306
323 323 326 328 332 334 336 333 331 330 328 326 323 327 326 328 329 331 328 328 328 326 313 311 308 308 309 310 314 319 321 321 321 322 321 320 318 315 310 306 306 305 304
322 322 323 326 333 333 334 333 331 329 326 328 328 327 327 327 326 327 327 326 327 317 312 311 307 307 307 308 311 318 319 321 321 321 320 319 317 314 308 306 305 305 306
322 324 325 327 335 334 333 332 331 330 330 328 328 327 326 331 328 323 320 320 325 315 310 307 306 306 306 306 308 313 319 320 321 320 319 317 314 315 312 307 307 307 307
324 325 325 328 333 333 332 331 329 328 328 329 328 325 329 329 327 329 329 328 327 314 310 306 306 306 306 306 307 316 320 320 320 320 318 316 316 316 313 308 306 306 306
331 327 325 328 331 333 331 330 330 329 327 327 328 327 325 330 329 329 329 327 324 315 311 309 307 306 306 306 312 319 320 320 320 319 317 317 318 315 311 306 306 305 305
332 328 325 327 331 330 332 330 328 329 329 328 328 325 327 327 326 329 328 326 321 316 312 311 308 309 314 313 317 319 320 320 320 319 316 316 316 312 308 305 305 305 304
330 325 325 328 328 329 330 329 329 329 331 330 327 328 327 328 326 328 323 323 318 316 315 312 314 317 316 316 317 319 319 319 320 318 314 313 316 310 308 306 306 306 306
330 327 326 327 327 328 328 327 329 329 330 330 328 328 327 327 324 325 320 322 319 318 316 316 320 319 318 317 318 318 319 319 319 318 313 310 310 309 307 307 306 306 306
329 328 326 326 327 327 328 328 328 328 329 329 328 328 327 325 323 322 321 322 322 321 319 320 320 319 317 317 318 318 318 319 319 318 317 310 311 309 308 308 307 307 306
328 328 324 325 326 326 326 326 327 327 326 326 327 327 327 324 323 319 318 322 323 322 321 321 319 317 316 316 317 317 317 318 318 319 317 315 310 310 310 310 309 307 307
328 328 325 324 324 325 325 324 324 325 326 327 327 324 325 321 319 314 315 322 323 323 321 320 318 316 316 316 316 317 317 318 318 319 318 318 316 315 309 309 309 309 308
327 327 325 324 324 324 323 325 324 325 322 325 325 324 321 319 314 313 317 320 321 317 316 317 316 316 316 316 316 316 317 317 318 318 318 318 318 317 315 312 309 309 308
327 327 324 325 324 322 323 323 322 321 321 320 319 317 315 312 312 314 316 315 314 313 314 311 313 316 315 315 315 315 316 316 317 317 317 318 318 317 318 317 316 312 309
327 327 324 324 324 322 323 322 320 318 315 314 315 314 312 313 315 315 315 313 315 313 311 310 314 314 313 314 313 314 314 315 315 316 317 317 316 317 317 317 318 316 313
327 326 324 324 323 321 323 321 318 316 314 313 313 312 313 312 314 311 315 316 316 313 313 313 316 315 314 313 315 317 317 316 315 315 315 314 315 317 317 317 316 315 314
327 326 324 323 322 323 322 322 320 316 314 314 314 313 312 312 313 314 317 315 315 317 317 318 318 318 318 317 318 321 322 322 321 317 316 315 315 315 315 315 315 312 309
328 326 322 323 323 322 322 322 320 317 315 314 314 309 312 312 313 315 316 317 315 318 319 319 320 321 320 320 319 319 320 322 322 321 320 318 316 315 316 315 313 314 314
329 325 323 323 323 322 322 322 321 317 314 313 313 311 314 313 312 309 314 317 318 319 319 320 321 319 321 321 321 320 320 320 320 320 320 320 319 318 317 317 317 317 315
329 326 323 323 323 322 322 321 321 321 316 315 314 314 315 315 314 313 313 316 318 319 321 321 318 318 318 320 320 321 321 321 320 320 320 321 321 320 320 320 318 318 315